Wetterdaten: Sonntag, 06.05.2012
Datum Zeit Temp. A. Feuchte A. Regen Wind Richtung Richtung Taupunkt Windchill Windben
06.05.2012 00:00 7,3 C 83 % 0,0 l/m 0,6 km/h (0 Bft) W-SW 247 4,6 C 5,8 C 0,0 km/h (0 Bft)
06.05.2012 00:01 7,3 C 83 % 0,0 l/m 0,6 km/h (0 Bft) W-SW 247 4,6 C 5,8 C 0,0 km/h (0 Bft)
06.05.2012 00:02 7,3 C 83 % 0,0 l/m 0,6 km/h (0 Bft) W-SW 247 4,6 C 5,8 C 0,0 km/h (0 Bft)
06.05.2012 00:03 7,3 C 83 % 0,0 l/m 0,6 km/h (0 Bft) N-NO 22 4,6 C 5,8 C 0,0 km/h (0 Bft)
06.05.2012 00:04 7,3 C 82 % 0,0 l/m 0,6 km/h (0 Bft) N-NO 22 4,4 C 5,8 C 0,0 km/h (0 Bft)
06.05.2012 00:05 7,3 C 82 % 0,0 l/m 0,3 km/h (0 Bft) N-NO 22 4,4 C 5,7 C 0,0 km/h (0 Bft)
06.05.2012 00:06 7,2 C 83 % 0,0 l/m 0,3 km/h (0 Bft) N-NO 22 4,5 C 5,7 C 0,0 km/h (0 Bft)
06.05.2012 00:07 7,2 C 83 % 0,0 l/m 0,3 km/h (0 Bft) NO 45 4,5 C 5,6 C 0,0 km/h (0 Bft)
06.05.2012 00:08 7,2 C 83 % 0,0 l/m 0,3 km/h (0 Bft) NO 45 4,5 C 5,6 C 0,0 km/h (0 Bft)
06.05.2012 00:09 7,2 C 83 % 0,0 l/m 0,0 km/h (0 Bft) S-SO 157 4,5 C 5,6 C 0,0 km/h (0 Bft)
06.05.2012 00:10 7,2 C 83 % 0,0 l/m 0,0 km/h (0 Bft) S-SO 157 4,5 C 5,6 C 0,0 km/h (0 Bft)
06.05.2012 00:11 7,2 C 83 % 0,0 l/m 0,0 km/h (0 Bft) S-SO 157 4,5 C 5,6 C 0,0 km/h (0 Bft)
06.05.2012 00:12 7,2 C 83 % 0,0 l/m 0,0 km/h (0 Bft) S-SO 157 4,5 C 5,6 C 0,0 km/h (0 Bft)
06.05.2012 00:13 7,2 C 83 % 0,0 l/m 0,0 km/h (0 Bft) O-SO 112 4,5 C 5,6 C 0,0 km/h (0 Bft)
06.05.2012 00:14 7,2 C 83 % 0,0 l/m 0,0 km/h (0 Bft) O-SO 112 4,5 C 5,6 C 0,0 km/h (0 Bft)
06.05.2012 00:15 7,2 C 83 % 0,0 l/m 0,0 km/h (0 Bft) O-SO 112 4,5 C 5,6 C 1,6 km/h (1 Bft)
06.05.2012 00:16 7,2 C 83 % 0,0 l/m 0,0 km/h (0 Bft) O-SO 112 4,5 C 5,6 C 2,1 km/h (1 Bft)
06.05.2012 00:17 7,2 C 83 % 0,0 l/m 0,2 km/h (0 Bft) O-NO 67 4,5 C 5,6 C 0,0 km/h (0 Bft)
06.05.2012 00:18 7,2 C 83 % 0,0 l/m 0,2 km/h (0 Bft) O-NO 67 4,5 C 5,6 C 0,0 km/h (0 Bft)
06.05.2012 00:19 7,2 C 83 % 0,0 l/m 0,2 km/h (0 Bft) S-SO 157 4,5 C 5,6 C 1,6 km/h (1 Bft)
06.05.2012 00:20 7,2 C 83 % 0,0 l/m 0,2 km/h (0 Bft) S-SO 157 4,5 C 5,6 C 1,6 km/h (1 Bft)
06.05.2012 00:21 7,2 C 83 % 0,0 l/m 0,2 km/h (0 Bft) S-SO 157 4,5 C 5,6 C 1,6 km/h (1 Bft)
06.05.2012 00:22 7,2 C 83 % 0,0 l/m 0,2 km/h (0 Bft) S-SO 157 4,5 C 5,6 C 1,6 km/h (1 Bft)
06.05.2012 00:23 7,2 C 83 % 0,0 l/m 0,2 km/h (0 Bft) O 90 4,5 C 5,7 C 0,0 km/h (0 Bft)
06.05.2012 00:24 7,3 C 83 % 0,0 l/m 0,2 km/h (0 Bft) O 90 4,6 C 5,7 C 0,0 km/h (0 Bft)
06.05.2012 00:25 7,3 C 83 % 0,0 l/m 0,3 km/h (0 Bft) O-SO 112 4,6 C 5,8 C 0,0 km/h (0 Bft)
06.05.2012 00:26 7,3 C 83 % 0,0 l/m 0,2 km/h (0 Bft) W-NW 292 4,6 C 5,9 C 2,4 km/h (1 Bft)
06.05.2012 00:27 7,3 C 83 % 0,0 l/m 0,2 km/h (0 Bft) W-NW 292 4,6 C 5,9 C 2,1 km/h (1 Bft)
06.05.2012 00:28 7,3 C 83 % 0,0 l/m 0,2 km/h (0 Bft) W-NW 292 4,6 C 5,9 C 2,1 km/h (1 Bft)
06.05.2012 00:29 7,3 C 83 % 0,0 l/m 0,3 km/h (0 Bft) O-SO 112 4,6 C 6,0 C 0,0 km/h (0 Bft)
06.05.2012 00:30 7,4 C 83 % 0,0 l/m 0,3 km/h (0 Bft) O-SO 112 4,7 C 6,0 C 0,0 km/h (0 Bft)
06.05.2012 00:31 7,4 C 83 % 0,0 l/m 0,3 km/h (0 Bft) N-NO 22 4,7 C 6,0 C 0,0 km/h (0 Bft)
06.05.2012 00:32 7,4 C 83 % 0,0 l/m 0,3 km/h (0 Bft) N-NO 22 4,7 C 6,0 C 0,0 km/h (0 Bft)
06.05.2012 00:33 7,4 C 83 % 0,0 l/m 0,3 km/h (0 Bft) N-NO 22 4,7 C 6,1 C 0,0 km/h (0 Bft)
06.05.2012 00:34 7,5 C 83 % 0,0 l/m 0,3 km/h (0 Bft) N-NO 22 4,8 C 6,1 C 0,0 km/h (0 Bft)
06.05.2012 00:35 7,5 C 83 % 0,0 l/m 0,3 km/h (0 Bft) SO 135 4,8 C 6,1 C 0,0 km/h (0 Bft)
06.05.2012 00:36 7,5 C 83 % 0,0 l/m 0,3 km/h (0 Bft) SO 135 4,8 C 6,1 C 2,7 km/h (1 Bft)
06.05.2012 00:38 7,4 C 83 % 0,0 l/m 0,0 km/h (0 Bft) SO 135 4,7 C 6,2 C 1,6 km/h (1 Bft)
06.05.2012 00:39 7,4 C 83 % 0,0 l/m 0,0 km/h (0 Bft) SO 135 4,7 C 6,2 C 1,6 km/h (1 Bft)
06.05.2012 00:40 7,4 C 83 % 0,0 l/m 0,0 km/h (0 Bft) SO 135 4,7 C 6,2 C 1,6 km/h (1 Bft)
06.05.2012 00:41 7,4 C 83 % 0,0 l/m 0,0 km/h (0 Bft) SO 135 4,7 C 6,2 C 1,6 km/h (1 Bft)
06.05.2012 00:42 7,5 C 83 % 0,0 l/m 0,0 km/h (0 Bft) SO 135 4,8 C 6,2 C 1,6 km/h (1 Bft)
06.05.2012 00:43 7,5 C 83 % 0,0 l/m 0,0 km/h (0 Bft) N 360 4,8 C 6,3 C 0,0 km/h (0 Bft)
06.05.2012 00:44 7,5 C 83 % 0,0 l/m 0,0 km/h (0 Bft) N 360 4,8 C 6,3 C 0,0 km/h (0 Bft)
06.05.2012 00:45 7,5 C 83 % 0,0 l/m 0,0 km/h (0 Bft) SO 135 4,8 C 6,4 C 0,0 km/h (0 Bft)
06.05.2012 00:46 7,6 C 83 % 0,0 l/m 0,0 km/h (0 Bft) W-NW 292 4,9 C 6,4 C 0,0 km/h (0 Bft)
06.05.2012 00:47 7,6 C 83 % 0,0 l/m 0,0 km/h (0 Bft) W-NW 292 4,9 C 6,4 C 0,0 km/h (0 Bft)
06.05.2012 00:48 7,6 C 83 % 0,0 l/m 0,0 km/h (0 Bft) W-NW 292 4,9 C 6,4 C 0,0 km/h (0 Bft)
06.05.2012 00:49 7,6 C 83 % 0,0 l/m 0,0 km/h (0 Bft) S 180 4,9 C 6,5 C 0,0 km/h (0 Bft)
06.05.2012 00:50 7,7 C 83 % 0,0 l/m 0,0 km/h (0 Bft) S 180 5,0 C 6,5 C 0,0 km/h (0 Bft)
06.05.2012 00:51 7,7 C 83 % 0,0 l/m 0,0 km/h (0 Bft) S-SW 202 5,0 C 6,5 C 0,0 km/h (0 Bft)
06.05.2012 00:52 7,6 C 83 % 0,0 l/m 0,0 km/h (0 Bft) W-SW 247 4,9 C 6,6 C 0,0 km/h (0 Bft)
06.05.2012 00:53 7,6 C 83 % 0,0 l/m 0,0 km/h (0 Bft) W-SW 247 4,9 C 6,6 C 0,0 km/h (0 Bft)
06.05.2012 00:54 7,7 C 83 % 0,0 l/m 0,0 km/h (0 Bft) W-SW 247 5,0 C 6,6 C 0,0 km/h (0 Bft)
06.05.2012 00:55 7,7 C 83 % 0,0 l/m 0,0 km/h (0 Bft) O-SO 112 5,0 C 6,6 C 0,0 km/h (0 Bft)
06.05.2012 00:56 7,7 C 83 % 0,0 l/m 0,0 km/h (0 Bft) O-SO 112 5,0 C 6,6 C 0,0 km/h (0 Bft)
06.05.2012 00:57 7,7 C 83 % 0,0 l/m 0,0 km/h (0 Bft) N 360 5,0 C 6,6 C 0,0 km/h (0 Bft)
06.05.2012 00:58 7,7 C 83 % 0,0 l/m 0,0 km/h (0 Bft) N 360 5,0 C 6,6 C 0,0 km/h (0 Bft)
06.05.2012 00:59 7,7 C 83 % 0,0 l/m 0,0 km/h (0 Bft) W-SW 247 5,0 C 6,7 C 0,0 km/h (0 Bft)
06.05.2012 01:00 7,7 C 83 % 0,0 l/m 0,0 km/h (0 Bft) W-SW 247 5,0 C 6,7 C 0,0 km/h (0 Bft)
06.05.2012 01:01 7,7 C 83 % 0,0 l/m 0,0 km/h (0 Bft) W-SW 247 5,0 C 6,7 C 0,0 km/h (0 Bft)
06.05.2012 01:02 7,8 C 83 % 0,0 l/m 0,0 km/h (0 Bft) W-SW 247 5,1 C 6,7 C 0,0 km/h (0 Bft)
06.05.2012 01:03 7,8 C 83 % 0,0 l/m 0,0 km/h (0 Bft) N-NO 22 5,1 C 6,8 C 0,0 km/h (0 Bft)
06.05.2012 01:04 7,9 C 83 % 0,0 l/m 0,0 km/h (0 Bft) N-NO 22 5,2 C 6,8 C 0,0 km/h (0 Bft)
06.05.2012 01:05 7,9 C 83 % 0,0 l/m 0,0 km/h (0 Bft) O 90 5,2 C 6,8 C 0,0 km/h (0 Bft)
06.05.2012 01:06 7,8 C 83 % 0,0 l/m 0,0 km/h (0 Bft) O 90 5,1 C 6,8 C 0,0 km/h (0 Bft)
06.05.2012 01:07 7,8 C 83 % 0,0 l/m 0,0 km/h (0 Bft) NW 315 5,1 C 6,8 C 0,0 km/h (0 Bft)
06.05.2012 01:08 7,8 C 83 % 0,0 l/m 0,0 km/h (0 Bft) NW 315 5,1 C 6,8 C 0,0 km/h (0 Bft)
06.05.2012 01:09 7,8 C 83 % 0,0 l/m 0,0 km/h (0 Bft) S 180 5,1 C 6,8 C 0,0 km/h (0 Bft)
06.05.2012 01:10 7,9 C 83 % 0,0 l/m 0,0 km/h (0 Bft) S 180 5,2 C 6,8 C 0,0 km/h (0 Bft)
06.05.2012 01:11 7,9 C 83 % 0,0 l/m 0,2 km/h (0 Bft) N 360 5,2 C 6,9 C 0,0 km/h (0 Bft)
06.05.2012 01:12 7,9 C 83 % 0,0 l/m 0,2 km/h (0 Bft) N 360 5,2 C 6,9 C 0,0 km/h (0 Bft)
06.05.2012 01:13 7,9 C 83 % 0,0 l/m 0,2 km/h (0 Bft) O-SO 112 5,2 C 6,9 C 0,0 km/h (0 Bft)
06.05.2012 01:14 7,9 C 83 % 0,0 l/m 0,2 km/h (0 Bft) O-SO 112 5,2 C 6,9 C 0,0 km/h (0 Bft)
06.05.2012 01:15 7,9 C 83 % 0,0 l/m 0,2 km/h (0 Bft) NO 45 5,2 C 7,0 C 0,0 km/h (0 Bft)
06.05.2012 01:16 7,9 C 83 % 0,0 l/m 0,2 km/h (0 Bft) NO 45 5,2 C 7,0 C 0,0 km/h (0 Bft)
06.05.2012 01:17 7,9 C 83 % 0,0 l/m 0,2 km/h (0 Bft) SO 135 5,2 C 7,0 C 0,0 km/h (0 Bft)
06.05.2012 01:18 8,0 C 83 % 0,0 l/m 0,2 km/h (0 Bft) SO 135 5,3 C 7,0 C 0,0 km/h (0 Bft)
06.05.2012 01:19 8,0 C 83 % 0,0 l/m 0,6 km/h (0 Bft) O 90 5,3 C 7,1 C 2,6 km/h (1 Bft)
06.05.2012 01:20 8,0 C 83 % 0,0 l/m 0,6 km/h (0 Bft) O 90 5,3 C 7,1 C 2,6 km/h (1 Bft)
06.05.2012 01:21 8,0 C 83 % 0,0 l/m 0,6 km/h (0 Bft) O 90 5,3 C 7,1 C 2,6 km/h (1 Bft)
06.05.2012 01:22 8,1 C 83 % 0,0 l/m 0,6 km/h (0 Bft) O 90 5,4 C 7,1 C 2,6 km/h (1 Bft)
06.05.2012 01:23 8,1 C 83 % 0,0 l/m 0,6 km/h (0 Bft) O-SO 112 5,4 C 7,2 C 0,0 km/h (0 Bft)
06.05.2012 01:24 8,0 C 83 % 0,0 l/m 0,6 km/h (0 Bft) O-SO 112 5,3 C 7,2 C 0,0 km/h (0 Bft)
06.05.2012 01:25 8,0 C 83 % 0,0 l/m 0,8 km/h (0 Bft) N 360 5,3 C 7,2 C 0,0 km/h (0 Bft)
06.05.2012 01:26 8,0 C 83 % 0,0 l/m 0,8 km/h (0 Bft) N 360 5,3 C 7,2 C 4,5 km/h (1 Bft)
06.05.2012 01:27 8,0 C 83 % 0,0 l/m 0,8 km/h (0 Bft) SO 135 5,3 C 7,3 C 0,0 km/h (0 Bft)
06.05.2012 01:28 8,1 C 83 % 0,0 l/m 0,8 km/h (0 Bft) SO 135 5,4 C 7,3 C 0,0 km/h (0 Bft)
06.05.2012 01:29 8,1 C 83 % 0,0 l/m 0,5 km/h (0 Bft) O-NO 67 5,4 C 7,3 C 0,0 km/h (0 Bft)
06.05.2012 01:30 8,1 C 83 % 0,0 l/m 0,5 km/h (0 Bft) O-NO 67 5,4 C 7,3 C 0,0 km/h (0 Bft)
06.05.2012 01:31 8,1 C 83 % 0,0 l/m 0,2 km/h (0 Bft) SO 135 5,4 C 7,3 C 3,1 km/h (1 Bft)
06.05.2012 01:32 8,1 C 83 % 0,0 l/m 0,2 km/h (0 Bft) SO 135 5,4 C 7,3 C 3,1 km/h (1 Bft)
06.05.2012 01:33 8,1 C 83 % 0,0 l/m 0,2 km/h (0 Bft) O-SO 112 5,4 C 7,4 C 2,1 km/h (1 Bft)
06.05.2012 01:34 8,1 C 82 % 0,0 l/m 0,2 km/h (0 Bft) O-SO 112 5,2 C 7,4 C 2,1 km/h (1 Bft)
06.05.2012 01:35 8,1 C 82 % 0,0 l/m 0,8 km/h (0 Bft) S 180 5,2 C 7,4 C 7,2 km/h (2 Bft)
06.05.2012 01:36 8,2 C 82 % 0,0 l/m 0,8 km/h (0 Bft) S 180 5,3 C 7,4 C 8,9 km/h (2 Bft)
06.05.2012 01:37 8,2 C 82 % 0,0 l/m 2,4 km/h (1 Bft) O-SO 112 5,3 C 7,4 C 9,5 km/h (2 Bft)
06.05.2012 01:38 8,2 C 82 % 0,0 l/m 2,4 km/h (1 Bft) O-SO 112 5,3 C 7,4 C 9,5 km/h (2 Bft)
06.05.2012 01:39 8,2 C 82 % 0,0 l/m 3,2 km/h (1 Bft) O-SO 112 5,3 C 7,4 C 4,5 km/h (1 Bft)
06.05.2012 01:40 8,1 C 82 % 0,0 l/m 3,2 km/h (1 Bft) O-SO 112 5,2 C 7,4 C 4,5 km/h (1 Bft)
06.05.2012 01:41 8,1 C 82 % 0,0 l/m 3,2 km/h (1 Bft) O-SO 112 5,2 C 7,4 C 4,5 km/h (1 Bft)
06.05.2012 01:42 8,1 C 82 % 0,0 l/m 3,2 km/h (1 Bft) O-SO 112 5,2 C 7,4 C 4,5 km/h (1 Bft)
06.05.2012 01:43 8,1 C 82 % 0,0 l/m 4,0 km/h (1 Bft) N 360 5,2 C 7,2 C 2,7 km/h (1 Bft)
06.05.2012 01:44 8,1 C 82 % 0,0 l/m 4,0 km/h (1 Bft) N 360 5,2 C 7,2 C 2,7 km/h (1 Bft)
06.05.2012 01:45 8,1 C 82 % 0,0 l/m 4,3 km/h (1 Bft) O-NO 67 5,2 C 7,0 C 5,1 km/h (1 Bft)
06.05.2012 01:46 8,1 C 82 % 0,0 l/m 4,3 km/h (1 Bft) O-NO 67 5,2 C 7,0 C 10,6 km/h (2 Bft)
06.05.2012 01:47 8,1 C 82 % 0,0 l/m 4,3 km/h (1 Bft) SO 135 5,2 C 7,0 C 12,9 km/h (3 Bft)
06.05.2012 01:48 8,2 C 82 % 0,0 l/m 4,3 km/h (1 Bft) SO 135 5,3 C 7,0 C 12,9 km/h (3 Bft)
06.05.2012 01:49 8,2 C 82 % 0,0 l/m 3,5 km/h (1 Bft) O-SO 112 5,3 C 7,4 C 3,5 km/h (1 Bft)
06.05.2012 01:50 8,3 C 82 % 0,0 l/m 3,5 km/h (1 Bft) O-SO 112 5,4 C 7,4 C 3,5 km/h (1 Bft)
06.05.2012 01:51 8,3 C 82 % 0,0 l/m 4,3 km/h (1 Bft) O-NO 67 5,4 C 7,2 C 10,1 km/h (2 Bft)
06.05.2012 01:52 8,3 C 82 % 0,0 l/m 4,3 km/h (1 Bft) O-NO 67 5,4 C 7,2 C 10,1 km/h (2 Bft)
06.05.2012 01:53 8,3 C 82 % 0,0 l/m 4,2 km/h (1 Bft) O-SO 112 5,4 C 7,2 C 5,5 km/h (1 Bft)
06.05.2012 01:54 8,2 C 82 % 0,0 l/m 4,2 km/h (1 Bft) O-SO 112 5,3 C 7,2 C 5,5 km/h (1 Bft)
06.05.2012 01:55 8,2 C 82 % 0,0 l/m 4,8 km/h (1 Bft) S-SO 157 5,3 C 6,8 C 7,9 km/h (2 Bft)
06.05.2012 01:56 8,3 C 82 % 0,0 l/m 4,8 km/h (1 Bft) S-SO 157 5,4 C 6,8 C 13,5 km/h (3 Bft)
06.05.2012 01:57 8,3 C 82 % 0,0 l/m 5,1 km/h (1 Bft) O-SO 112 5,4 C 6,7 C 5,1 km/h (1 Bft)
06.05.2012 01:58 8,3 C 82 % 0,0 l/m 5,1 km/h (1 Bft) O-SO 112 5,4 C 6,7 C 5,1 km/h (1 Bft)
06.05.2012 01:59 8,3 C 82 % 0,0 l/m 5,1 km/h (1 Bft) O-SO 112 5,4 C 6,7 C 5,0 km/h (1 Bft)
06.05.2012 02:00 8,3 C 82 % 0,0 l/m 5,1 km/h (1 Bft) O-SO 112 5,4 C 6,7 C 5,0 km/h (1 Bft)
06.05.2012 02:01 8,3 C 82 % 0,0 l/m 5,1 km/h (1 Bft) O-SO 112 5,4 C 6,7 C 5,0 km/h (1 Bft)
06.05.2012 02:02 8,3 C 82 % 0,0 l/m 5,1 km/h (1 Bft) O-SO 112 5,4 C 6,7 C 5,0 km/h (1 Bft)
06.05.2012 02:03 8,3 C 82 % 0,0 l/m 4,8 km/h (1 Bft) O 90 5,4 C 6,8 C 8,2 km/h (2 Bft)
06.05.2012 02:04 8,2 C 82 % 0,0 l/m 4,8 km/h (1 Bft) O 90 5,3 C 6,8 C 8,2 km/h (2 Bft)
06.05.2012 02:05 8,2 C 82 % 0,0 l/m 4,7 km/h (1 Bft) O-NO 67 5,3 C 6,9 C 6,0 km/h (2 Bft)
06.05.2012 02:06 8,3 C 82 % 0,0 l/m 4,7 km/h (1 Bft) O-NO 67 5,4 C 6,9 C 6,0 km/h (2 Bft)
06.05.2012 02:07 8,3 C 82 % 0,0 l/m 4,2 km/h (1 Bft) O-SO 112 5,4 C 7,1 C 5,1 km/h (1 Bft)
06.05.2012 02:08 8,3 C 82 % 0,0 l/m 4,2 km/h (1 Bft) O-SO 112 5,4 C 7,1 C 5,1 km/h (1 Bft)
06.05.2012 02:09 8,3 C 82 % 0,0 l/m 3,7 km/h (1 Bft) N 360 5,4 C 7,3 C 4,7 km/h (1 Bft)
06.05.2012 02:10 8,3 C 83 % 0,0 l/m 3,7 km/h (1 Bft) N 360 5,6 C 7,3 C 4,7 km/h (1 Bft)
06.05.2012 02:11 8,3 C 83 % 0,0 l/m 3,2 km/h (1 Bft) N-NO 22 5,6 C 7,3 C 0,0 km/h (0 Bft)
06.05.2012 02:12 8,2 C 83 % 0,0 l/m 3,2 km/h (1 Bft) N-NO 22 5,5 C 7,3 C 0,0 km/h (0 Bft)
06.05.2012 02:13 8,2 C 83 % 0,0 l/m 2,6 km/h (1 Bft) O 90 5,5 C 7,2 C 3,1 km/h (1 Bft)
06.05.2012 02:14 8,3 C 82 % 0,0 l/m 2,6 km/h (1 Bft) O 90 5,4 C 7,2 C 3,1 km/h (1 Bft)
06.05.2012 02:15 8,3 C 82 % 0,0 l/m 2,6 km/h (1 Bft) O 90 5,4 C 7,2 C 5,5 km/h (1 Bft)
06.05.2012 02:16 8,1 C 83 % 0,0 l/m 2,6 km/h (1 Bft) O 90 5,4 C 7,2 C 5,5 km/h (1 Bft)
06.05.2012 02:17 8,1 C 83 % 0,0 l/m 2,1 km/h (1 Bft) S-SO 157 5,4 C 7,2 C 1,9 km/h (1 Bft)
06.05.2012 02:18 8,1 C 83 % 0,0 l/m 2,1 km/h (1 Bft) S-SO 157 5,4 C 7,2 C 1,9 km/h (1 Bft)
06.05.2012 02:19 8,1 C 83 % 0,0 l/m 1,6 km/h (1 Bft) O 90 5,4 C 7,2 C 3,4 km/h (1 Bft)
06.05.2012 02:20 8,0 C 83 % 0,0 l/m 1,6 km/h (1 Bft) O 90 5,3 C 7,2 C 3,4 km/h (1 Bft)
06.05.2012 02:21 8,0 C 83 % 0,0 l/m 1,6 km/h (1 Bft) O 90 5,3 C 7,2 C 3,4 km/h (1 Bft)
06.05.2012 02:22 8,0 C 83 % 0,0 l/m 1,6 km/h (1 Bft) O 90 5,3 C 7,2 C 3,4 km/h (1 Bft)
06.05.2012 02:23 8,0 C 83 % 0,0 l/m 1,8 km/h (1 Bft) N-NO 22 5,3 C 7,1 C 0,0 km/h (0 Bft)
06.05.2012 02:24 8,0 C 83 % 0,0 l/m 1,8 km/h (1 Bft) N-NO 22 5,3 C 7,1 C 0,0 km/h (0 Bft)
06.05.2012 02:25 8,0 C 83 % 0,0 l/m 1,3 km/h (1 Bft) O 90 5,3 C 7,0 C 2,3 km/h (1 Bft)
06.05.2012 02:26 8,1 C 83 % 0,0 l/m 1,0 km/h (0 Bft) NO 45 5,4 C 6,9 C 0,0 km/h (0 Bft)
06.05.2012 02:27 8,1 C 83 % 0,0 l/m 1,0 km/h (0 Bft) NO 45 5,4 C 6,9 C 0,0 km/h (0 Bft)
06.05.2012 02:29 8,1 C 83 % 0,0 l/m 1,3 km/h (1 Bft) NO 45 5,4 C 6,9 C 2,1 km/h (1 Bft)
06.05.2012 02:30 8,1 C 83 % 0,0 l/m 1,3 km/h (1 Bft) NO 45 5,4 C 6,9 C 2,1 km/h (1 Bft)
06.05.2012 02:31 8,1 C 83 % 0,0 l/m 1,3 km/h (1 Bft) NO 45 5,4 C 6,9 C 2,4 km/h (1 Bft)
06.05.2012 02:32 8,0 C 83 % 0,0 l/m 1,3 km/h (1 Bft) NO 45 5,3 C 6,9 C 2,4 km/h (1 Bft)
06.05.2012 02:33 8,0 C 83 % 0,0 l/m 1,3 km/h (1 Bft) O-SO 112 5,3 C 6,9 C 3,7 km/h (1 Bft)
06.05.2012 02:34 8,0 C 83 % 0,0 l/m 1,3 km/h (1 Bft) O-SO 112 5,3 C 6,9 C 3,7 km/h (1 Bft)
06.05.2012 02:35 8,0 C 83 % 0,0 l/m 1,3 km/h (1 Bft) N 360 5,3 C 6,9 C 0,0 km/h (0 Bft)
06.05.2012 02:36 8,0 C 83 % 0,0 l/m 1,3 km/h (1 Bft) N 360 5,3 C 6,9 C 0,0 km/h (0 Bft)
06.05.2012 02:37 8,0 C 83 % 0,0 l/m 1,1 km/h (1 Bft) S-SW 202 5,3 C 6,9 C 0,0 km/h (0 Bft)
06.05.2012 02:38 8,0 C 83 % 0,0 l/m 1,1 km/h (1 Bft) S-SW 202 5,3 C 6,9 C 0,0 km/h (0 Bft)
06.05.2012 02:39 8,0 C 83 % 0,0 l/m 1,1 km/h (1 Bft) O-NO 67 5,3 C 6,9 C 1,9 km/h (1 Bft)
06.05.2012 02:40 7,9 C 83 % 0,0 l/m 1,1 km/h (1 Bft) O-NO 67 5,2 C 6,9 C 1,9 km/h (1 Bft)
06.05.2012 02:41 7,9 C 83 % 0,0 l/m 1,1 km/h (1 Bft) O-NO 67 5,2 C 6,9 C 1,9 km/h (1 Bft)
06.05.2012 02:42 7,9 C 83 % 0,0 l/m 1,1 km/h (1 Bft) O-NO 67 5,2 C 6,9 C 1,9 km/h (1 Bft)
06.05.2012 02:43 7,9 C 83 % 0,0 l/m 0,5 km/h (0 Bft) N-NO 22 5,2 C 6,9 C 0,0 km/h (0 Bft)
06.05.2012 02:44 7,9 C 83 % 0,0 l/m 0,5 km/h (0 Bft) N-NO 22 5,2 C 6,9 C 0,0 km/h (0 Bft)
06.05.2012 02:45 7,9 C 83 % 0,0 l/m 0,3 km/h (0 Bft) N-NW 337 5,2 C 6,8 C 0,0 km/h (0 Bft)
06.05.2012 02:46 7,9 C 83 % 0,0 l/m 0,3 km/h (0 Bft) N-NW 337 5,2 C 6,8 C 0,0 km/h (0 Bft)
06.05.2012 02:47 7,9 C 83 % 0,0 l/m 0,3 km/h (0 Bft) O-SO 112 5,2 C 6,7 C 0,0 km/h (0 Bft)
06.05.2012 02:48 7,9 C 83 % 0,0 l/m 0,3 km/h (0 Bft) O-SO 112 5,2 C 6,7 C 0,0 km/h (0 Bft)
06.05.2012 02:49 7,9 C 83 % 0,0 l/m 0,2 km/h (0 Bft) O 90 5,2 C 6,7 C 1,6 km/h (1 Bft)
06.05.2012 02:50 7,9 C 83 % 0,0 l/m 0,2 km/h (0 Bft) O 90 5,2 C 6,7 C 1,6 km/h (1 Bft)
06.05.2012 02:51 7,9 C 83 % 0,0 l/m 0,2 km/h (0 Bft) S-SO 157 5,2 C 6,6 C 0,0 km/h (0 Bft)
06.05.2012 02:52 7,8 C 83 % 0,0 l/m 0,2 km/h (0 Bft) S-SO 157 5,1 C 6,6 C 0,0 km/h (0 Bft)
06.05.2012 02:53 7,8 C 83 % 0,0 l/m 0,2 km/h (0 Bft) NO 45 5,1 C 6,6 C 0,0 km/h (0 Bft)
06.05.2012 02:54 7,8 C 83 % 0,0 l/m 0,2 km/h (0 Bft) NO 45 5,1 C 6,6 C 0,0 km/h (0 Bft)
06.05.2012 02:55 7,8 C 83 % 0,0 l/m 0,2 km/h (0 Bft) N-NO 22 5,1 C 6,5 C 0,0 km/h (0 Bft)
06.05.2012 02:56 7,9 C 83 % 0,0 l/m 0,2 km/h (0 Bft) N-NO 22 5,2 C 6,5 C 0,0 km/h (0 Bft)
06.05.2012 02:57 7,9 C 83 % 0,0 l/m 0,2 km/h (0 Bft) NO 45 5,2 C 6,5 C 0,0 km/h (0 Bft)
06.05.2012 02:58 7,9 C 83 % 0,0 l/m 0,2 km/h (0 Bft) NO 45 5,2 C 6,5 C 0,0 km/h (0 Bft)
06.05.2012 02:59 7,9 C 83 % 0,0 l/m 0,2 km/h (0 Bft) N-NO 22 5,2 C 6,5 C 0,0 km/h (0 Bft)
06.05.2012 03:00 7,9 C 83 % 0,0 l/m 0,2 km/h (0 Bft) N-NO 22 5,2 C 6,5 C 0,0 km/h (0 Bft)
06.05.2012 03:01 7,9 C 83 % 0,0 l/m 0,2 km/h (0 Bft) N-NO 22 5,2 C 6,5 C 0,0 km/h (0 Bft)
06.05.2012 03:02 7,9 C 83 % 0,0 l/m 0,2 km/h (0 Bft) N-NO 22 5,2 C 6,5 C 0,0 km/h (0 Bft)
06.05.2012 03:03 7,9 C 83 % 0,0 l/m 0,2 km/h (0 Bft) S-SO 157 5,2 C 6,5 C 0,0 km/h (0 Bft)
06.05.2012 03:04 7,9 C 83 % 0,0 l/m 0,2 km/h (0 Bft) S-SO 157 5,2 C 6,5 C 0,0 km/h (0 Bft)
06.05.2012 03:05 7,9 C 83 % 0,0 l/m 0,2 km/h (0 Bft) N-NO 22 5,2 C 6,5 C 0,0 km/h (0 Bft)
06.05.2012 03:06 7,8 C 83 % 0,0 l/m 0,2 km/h (0 Bft) N-NO 22 5,1 C 6,5 C 0,0 km/h (0 Bft)
06.05.2012 03:07 7,8 C 83 % 0,0 l/m 0,2 km/h (0 Bft) N-NO 22 5,1 C 6,5 C 0,0 km/h (0 Bft)
06.05.2012 03:08 7,7 C 83 % 0,0 l/m 0,2 km/h (0 Bft) N-NO 22 5,0 C 6,5 C 0,0 km/h (0 Bft)
06.05.2012 03:09 7,7 C 83 % 0,0 l/m 0,2 km/h (0 Bft) NO 45 5,0 C 6,4 C 0,0 km/h (0 Bft)
06.05.2012 03:10 7,7 C 83 % 0,0 l/m 0,2 km/h (0 Bft) NO 45 5,0 C 6,4 C 0,0 km/h (0 Bft)
06.05.2012 03:11 7,7 C 83 % 0,0 l/m 0,6 km/h (0 Bft) N-NO 22 5,0 C 6,4 C 3,1 km/h (1 Bft)
06.05.2012 03:12 7,7 C 83 % 0,0 l/m 0,6 km/h (0 Bft) N-NO 22 5,0 C 6,4 C 3,1 km/h (1 Bft)
06.05.2012 03:13 7,7 C 83 % 0,0 l/m 0,6 km/h (0 Bft) N 360 5,0 C 6,4 C 0,0 km/h (0 Bft)
06.05.2012 03:14 7,7 C 83 % 0,0 l/m 0,6 km/h (0 Bft) N 360 5,0 C 6,4 C 0,0 km/h (0 Bft)
06.05.2012 03:15 7,7 C 83 % 0,0 l/m 0,5 km/h (0 Bft) SO 135 5,0 C 6,3 C 0,0 km/h (0 Bft)
06.05.2012 03:16 7,6 C 83 % 0,0 l/m 0,5 km/h (0 Bft) SO 135 4,9 C 6,3 C 0,0 km/h (0 Bft)
06.05.2012 03:17 7,6 C 83 % 0,0 l/m 0,8 km/h (0 Bft) O-SO 112 4,9 C 6,2 C 2,9 km/h (1 Bft)
06.05.2012 03:18 7,6 C 83 % 0,0 l/m 0,8 km/h (0 Bft) O-SO 112 4,9 C 6,2 C 2,9 km/h (1 Bft)
06.05.2012 03:19 7,6 C 83 % 0,0 l/m 1,0 km/h (0 Bft) N-NO 22 4,9 C 6,2 C 0,0 km/h (0 Bft)
06.05.2012 03:20 7,7 C 83 % 0,0 l/m 1,0 km/h (0 Bft) N-NO 22 5,0 C 6,2 C 0,0 km/h (0 Bft)
06.05.2012 03:21 7,7 C 83 % 0,0 l/m 1,0 km/h (0 Bft) N-NO 22 5,0 C 6,2 C 0,0 km/h (0 Bft)
06.05.2012 03:22 7,7 C 83 % 0,0 l/m 1,0 km/h (0 Bft) N-NO 22 5,0 C 6,2 C 0,0 km/h (0 Bft)
06.05.2012 03:23 7,7 C 83 % 0,0 l/m 1,0 km/h (0 Bft) NO 45 5,0 C 6,2 C 3,1 km/h (1 Bft)
06.05.2012 03:24 7,6 C 83 % 0,0 l/m 1,0 km/h (0 Bft) NO 45 4,9 C 6,2 C 3,1 km/h (1 Bft)
06.05.2012 03:25 7,6 C 83 % 0,0 l/m 1,1 km/h (1 Bft) O-NO 67 4,9 C 6,2 C 0,0 km/h (0 Bft)
06.05.2012 03:26 7,5 C 83 % 0,0 l/m 1,1 km/h (1 Bft) O-NO 67 4,8 C 6,2 C 0,0 km/h (0 Bft)
06.05.2012 03:27 7,5 C 83 % 0,0 l/m 1,1 km/h (1 Bft) N-NO 22 4,8 C 6,2 C 2,6 km/h (1 Bft)
06.05.2012 03:28 7,5 C 83 % 0,0 l/m 1,1 km/h (1 Bft) N-NO 22 4,8 C 6,2 C 2,6 km/h (1 Bft)
06.05.2012 03:29 7,5 C 83 % 0,0 l/m 1,3 km/h (1 Bft) N-NW 337 4,8 C 6,2 C 2,3 km/h (1 Bft)
06.05.2012 03:30 7,4 C 83 % 0,0 l/m 1,3 km/h (1 Bft) N-NW 337 4,7 C 6,2 C 2,3 km/h (1 Bft)
06.05.2012 03:31 7,4 C 83 % 0,0 l/m 1,1 km/h (1 Bft) N 360 4,7 C 6,1 C 0,0 km/h (0 Bft)
06.05.2012 03:32 7,5 C 83 % 0,0 l/m 1,1 km/h (1 Bft) N 360 4,8 C 6,1 C 0,0 km/h (0 Bft)
06.05.2012 03:33 7,5 C 83 % 0,0 l/m 1,0 km/h (0 Bft) O 90 4,8 C 6,0 C 0,0 km/h (0 Bft)
06.05.2012 03:34 7,5 C 83 % 0,0 l/m 1,0 km/h (0 Bft) O 90 4,8 C 6,0 C 0,0 km/h (0 Bft)
06.05.2012 03:35 7,5 C 83 % 0,0 l/m 0,5 km/h (0 Bft) N-NO 22 4,8 C 6,0 C 0,0 km/h (0 Bft)
06.05.2012 03:36 7,3 C 83 % 0,0 l/m 0,5 km/h (0 Bft) N-NO 22 4,6 C 6,0 C 0,0 km/h (0 Bft)
06.05.2012 03:37 7,3 C 83 % 0,0 l/m 0,5 km/h (0 Bft) NO 45 4,6 C 5,9 C 0,0 km/h (0 Bft)
06.05.2012 03:38 7,3 C 83 % 0,0 l/m 0,5 km/h (0 Bft) NO 45 4,6 C 5,9 C 0,0 km/h (0 Bft)
06.05.2012 03:39 7,3 C 83 % 0,0 l/m 0,3 km/h (0 Bft) N-NO 22 4,6 C 5,8 C 0,0 km/h (0 Bft)
06.05.2012 03:40 7,3 C 83 % 0,0 l/m 0,3 km/h (0 Bft) N-NO 22 4,6 C 5,8 C 0,0 km/h (0 Bft)
06.05.2012 03:41 7,3 C 83 % 0,0 l/m 0,3 km/h (0 Bft) N-NO 22 4,6 C 5,8 C 0,0 km/h (0 Bft)
06.05.2012 03:42 7,3 C 83 % 0,0 l/m 0,3 km/h (0 Bft) N-NO 22 4,6 C 5,8 C 0,0 km/h (0 Bft)
06.05.2012 03:43 7,3 C 83 % 0,0 l/m 0,0 km/h (0 Bft) N-NW 337 4,6 C 5,7 C 0,0 km/h (0 Bft)
06.05.2012 03:44 7,2 C 83 % 0,0 l/m 0,0 km/h (0 Bft) N-NW 337 4,5 C 5,7 C 0,0 km/h (0 Bft)
06.05.2012 03:45 7,2 C 83 % 0,0 l/m 0,0 km/h (0 Bft) W-NW 292 4,5 C 5,6 C 1,8 km/h (1 Bft)
06.05.2012 03:46 7,2 C 83 % 0,0 l/m 0,0 km/h (0 Bft) W-NW 292 4,5 C 5,6 C 1,8 km/h (1 Bft)
06.05.2012 03:47 7,2 C 83 % 0,0 l/m 0,0 km/h (0 Bft) NO 45 4,5 C 5,6 C 0,0 km/h (0 Bft)
06.05.2012 03:48 7,2 C 83 % 0,0 l/m 0,0 km/h (0 Bft) NO 45 4,5 C 5,6 C 0,0 km/h (0 Bft)
06.05.2012 03:49 7,2 C 83 % 0,0 l/m 0,0 km/h (0 Bft) NO 45 4,5 C 5,6 C 0,0 km/h (0 Bft)
06.05.2012 03:50 7,2 C 84 % 0,0 l/m 0,0 km/h (0 Bft) NO 45 4,7 C 5,6 C 0,0 km/h (0 Bft)
06.05.2012 03:51 7,2 C 84 % 0,0 l/m 0,0 km/h (0 Bft) N-NO 22 4,7 C 5,6 C 0,0 km/h (0 Bft)
06.05.2012 03:52 7,1 C 84 % 0,0 l/m 0,0 km/h (0 Bft) N-NO 22 4,6 C 5,6 C 0,0 km/h (0 Bft)
06.05.2012 03:53 7,1 C 84 % 0,0 l/m 0,0 km/h (0 Bft) N-NW 337 4,6 C 5,5 C 1,6 km/h (1 Bft)
06.05.2012 03:54 7,1 C 84 % 0,0 l/m 0,0 km/h (0 Bft) N-NW 337 4,6 C 5,5 C 1,6 km/h (1 Bft)
06.05.2012 03:55 7,1 C 84 % 0,0 l/m 0,2 km/h (0 Bft) N-NW 337 4,6 C 5,5 C 1,8 km/h (1 Bft)
06.05.2012 03:56 7,1 C 84 % 0,0 l/m 0,2 km/h (0 Bft) N-NW 337 4,6 C 5,5 C 1,8 km/h (1 Bft)
06.05.2012 03:57 7,1 C 84 % 0,0 l/m 0,2 km/h (0 Bft) N 360 4,6 C 5,5 C 0,0 km/h (0 Bft)
06.05.2012 03:58 7,1 C 84 % 0,0 l/m 0,2 km/h (0 Bft) N 360 4,6 C 5,5 C 0,0 km/h (0 Bft)
06.05.2012 03:59 7,1 C 84 % 0,0 l/m 0,2 km/h (0 Bft) NO 45 4,6 C 5,5 C 0,0 km/h (0 Bft)
06.05.2012 04:00 7,1 C 84 % 0,0 l/m 0,2 km/h (0 Bft) NO 45 4,6 C 5,5 C 0,0 km/h (0 Bft)
06.05.2012 04:01 7,1 C 84 % 0,0 l/m 0,2 km/h (0 Bft) NO 45 4,6 C 5,5 C 0,0 km/h (0 Bft)
06.05.2012 04:02 7,1 C 84 % 0,0 l/m 0,2 km/h (0 Bft) NO 45 4,6 C 5,5 C 0,0 km/h (0 Bft)
06.05.2012 04:03 7,1 C 84 % 0,0 l/m 0,2 km/h (0 Bft) N-NO 22 4,6 C 5,4 C 0,0 km/h (0 Bft)
06.05.2012 04:04 7,1 C 84 % 0,0 l/m 0,2 km/h (0 Bft) N-NO 22 4,6 C 5,4 C 0,0 km/h (0 Bft)
06.05.2012 04:05 7,1 C 84 % 0,0 l/m 0,2 km/h (0 Bft) N-NO 22 4,6 C 5,4 C 0,0 km/h (0 Bft)
06.05.2012 04:06 7,1 C 84 % 0,0 l/m 0,2 km/h (0 Bft) N-NO 22 4,6 C 5,4 C 0,0 km/h (0 Bft)
06.05.2012 04:07 7,1 C 84 % 0,0 l/m 0,0 km/h (0 Bft) NO 45 4,6 C 5,3 C 0,0 km/h (0 Bft)
06.05.2012 04:08 7,0 C 84 % 0,0 l/m 0,0 km/h (0 Bft) NO 45 4,5 C 5,3 C 0,0 km/h (0 Bft)
06.05.2012 04:09 7,0 C 84 % 0,0 l/m 0,0 km/h (0 Bft) NO 45 4,5 C 5,3 C 0,0 km/h (0 Bft)
06.05.2012 04:10 7,0 C 84 % 0,0 l/m 0,0 km/h (0 Bft) NO 45 4,5 C 5,3 C 0,0 km/h (0 Bft)
06.05.2012 04:11 7,0 C 84 % 0,0 l/m 0,0 km/h (0 Bft) O-SO 112 4,5 C 5,3 C 0,0 km/h (0 Bft)
06.05.2012 04:12 7,1 C 84 % 0,0 l/m 0,0 km/h (0 Bft) O-SO 112 4,6 C 5,3 C 0,0 km/h (0 Bft)
06.05.2012 04:13 7,1 C 84 % 0,0 l/m 0,0 km/h (0 Bft) O-NO 67 4,6 C 5,3 C 0,0 km/h (0 Bft)
06.05.2012 04:14 7,1 C 84 % 0,0 l/m 0,0 km/h (0 Bft) O-NO 67 4,6 C 5,3 C 0,0 km/h (0 Bft)
06.05.2012 04:15 7,1 C 84 % 0,0 l/m 0,0 km/h (0 Bft) O-SO 112 4,6 C 5,3 C 1,8 km/h (1 Bft)
06.05.2012 04:16 7,0 C 84 % 0,0 l/m 0,0 km/h (0 Bft) O-SO 112 4,5 C 5,3 C 1,8 km/h (1 Bft)
06.05.2012 04:17 7,0 C 84 % 0,0 l/m 0,3 km/h (0 Bft) O-SO 112 4,5 C 5,3 C 2,3 km/h (1 Bft)
06.05.2012 04:18 7,0 C 84 % 0,0 l/m 0,3 km/h (0 Bft) O-SO 112 4,5 C 5,3 C 2,3 km/h (1 Bft)
06.05.2012 04:19 7,0 C 84 % 0,0 l/m 0,3 km/h (0 Bft) N-NO 22 4,5 C 5,4 C 0,0 km/h (0 Bft)
06.05.2012 04:20 6,9 C 84 % 0,0 l/m 0,3 km/h (0 Bft) N-NO 22 4,4 C 5,4 C 0,0 km/h (0 Bft)
06.05.2012 04:21 6,9 C 84 % 0,0 l/m 0,3 km/h (0 Bft) N-NO 22 4,4 C 5,4 C 0,0 km/h (0 Bft)
06.05.2012 04:22 6,9 C 84 % 0,0 l/m 0,3 km/h (0 Bft) N-NO 22 4,4 C 5,4 C 0,0 km/h (0 Bft)
06.05.2012 04:23 6,9 C 84 % 0,0 l/m 0,3 km/h (0 Bft) N 360 4,4 C 5,4 C 0,0 km/h (0 Bft)
06.05.2012 04:24 6,9 C 84 % 0,0 l/m 0,3 km/h (0 Bft) N 360 4,4 C 5,4 C 0,0 km/h (0 Bft)
06.05.2012 04:25 6,9 C 84 % 0,0 l/m 0,3 km/h (0 Bft) SO 135 4,4 C 5,3 C 0,0 km/h (0 Bft)
06.05.2012 04:26 6,9 C 84 % 0,0 l/m 0,3 km/h (0 Bft) SO 135 4,4 C 5,3 C 0,0 km/h (0 Bft)
06.05.2012 04:27 6,9 C 84 % 0,0 l/m 0,2 km/h (0 Bft) S-SO 157 4,4 C 5,3 C 0,0 km/h (0 Bft)
06.05.2012 04:28 6,9 C 84 % 0,0 l/m 0,2 km/h (0 Bft) S-SO 157 4,4 C 5,3 C 0,0 km/h (0 Bft)
06.05.2012 04:29 6,9 C 84 % 0,0 l/m 0,0 km/h (0 Bft) O-SO 112 4,4 C 5,3 C 0,0 km/h (0 Bft)
06.05.2012 04:30 6,9 C 84 % 0,0 l/m 0,0 km/h (0 Bft) O-SO 112 4,4 C 5,3 C 0,0 km/h (0 Bft)
06.05.2012 04:31 6,9 C 84 % 0,0 l/m 0,0 km/h (0 Bft) SO 135 4,4 C 5,4 C 0,0 km/h (0 Bft)
06.05.2012 04:32 7,0 C 84 % 0,0 l/m 0,0 km/h (0 Bft) SO 135 4,5 C 5,4 C 0,0 km/h (0 Bft)
06.05.2012 04:33 7,0 C 84 % 0,0 l/m 0,0 km/h (0 Bft) N 360 4,5 C 5,5 C 0,0 km/h (0 Bft)
06.05.2012 04:34 7,1 C 84 % 0,0 l/m 0,0 km/h (0 Bft) N 360 4,6 C 5,5 C 0,0 km/h (0 Bft)
06.05.2012 04:35 7,1 C 84 % 0,0 l/m 0,0 km/h (0 Bft) W-SW 247 4,6 C 5,5 C 0,0 km/h (0 Bft)
06.05.2012 04:36 7,1 C 84 % 0,0 l/m 0,0 km/h (0 Bft) W-SW 247 4,6 C 5,5 C 0,0 km/h (0 Bft)
06.05.2012 04:37 7,1 C 84 % 0,0 l/m 0,0 km/h (0 Bft) N 360 4,6 C 5,6 C 0,0 km/h (0 Bft)
06.05.2012 04:38 7,1 C 84 % 0,0 l/m 0,0 km/h (0 Bft) N 360 4,6 C 5,6 C 0,0 km/h (0 Bft)
06.05.2012 04:39 7,1 C 84 % 0,0 l/m 0,0 km/h (0 Bft) W-SW 247 4,6 C 5,6 C 0,0 km/h (0 Bft)
06.05.2012 04:40 7,1 C 84 % 0,0 l/m 0,0 km/h (0 Bft) W-SW 247 4,6 C 5,6 C 0,0 km/h (0 Bft)
06.05.2012 04:41 7,1 C 84 % 0,0 l/m 0,0 km/h (0 Bft) W-SW 247 4,6 C 5,6 C 0,0 km/h (0 Bft)
06.05.2012 04:42 7,0 C 84 % 0,0 l/m 0,0 km/h (0 Bft) W-SW 247 4,5 C 5,6 C 0,0 km/h (0 Bft)
06.05.2012 04:43 7,0 C 84 % 0,0 l/m 0,0 km/h (0 Bft) O-SO 112 4,5 C 5,7 C 0,0 km/h (0 Bft)
06.05.2012 04:44 7,1 C 85 % 0,0 l/m 0,0 km/h (0 Bft) O-SO 112 4,8 C 5,7 C 0,0 km/h (0 Bft)
06.05.2012 04:45 7,1 C 85 % 0,0 l/m 0,2 km/h (0 Bft) N 360 4,8 C 5,8 C 2,1 km/h (1 Bft)
06.05.2012 04:46 7,1 C 84 % 0,0 l/m 0,2 km/h (0 Bft) N 360 4,6 C 5,8 C 2,1 km/h (1 Bft)
06.05.2012 04:47 7,1 C 84 % 0,0 l/m 0,6 km/h (0 Bft) O-SO 112 4,6 C 6,0 C 3,1 km/h (1 Bft)
06.05.2012 04:48 7,2 C 85 % 0,0 l/m 0,6 km/h (0 Bft) O-SO 112 4,9 C 6,0 C 3,1 km/h (1 Bft)
06.05.2012 04:49 7,2 C 85 % 0,0 l/m 0,8 km/h (0 Bft) O-SO 112 4,9 C 6,0 C 0,0 km/h (0 Bft)
06.05.2012 04:50 7,2 C 85 % 0,0 l/m 0,8 km/h (0 Bft) O-SO 112 4,9 C 6,0 C 0,0 km/h (0 Bft)
06.05.2012 04:51 7,2 C 85 % 0,0 l/m 0,8 km/h (0 Bft) N 360 4,9 C 6,1 C 0,0 km/h (0 Bft)
06.05.2012 04:52 7,3 C 84 % 0,0 l/m 0,8 km/h (0 Bft) N 360 4,8 C 6,1 C 0,0 km/h (0 Bft)
06.05.2012 04:53 7,3 C 84 % 0,0 l/m 0,8 km/h (0 Bft) S-SW 202 4,8 C 6,2 C 0,0 km/h (0 Bft)
06.05.2012 04:54 7,3 C 84 % 0,0 l/m 0,8 km/h (0 Bft) S-SW 202 4,8 C 6,2 C 0,0 km/h (0 Bft)
06.05.2012 04:55 7,3 C 84 % 0,0 l/m 0,8 km/h (0 Bft) W 270 4,8 C 6,2 C 1,9 km/h (1 Bft)
06.05.2012 04:56 7,3 C 84 % 0,0 l/m 0,8 km/h (0 Bft) W 270 4,8 C 6,2 C 1,9 km/h (1 Bft)
06.05.2012 04:57 7,3 C 84 % 0,0 l/m 0,6 km/h (0 Bft) S 180 4,8 C 6,2 C 0,0 km/h (0 Bft)
06.05.2012 04:58 7,2 C 85 % 0,0 l/m 0,6 km/h (0 Bft) S 180 4,9 C 6,2 C 0,0 km/h (0 Bft)
06.05.2012 04:59 7,2 C 85 % 0,0 l/m 0,2 km/h (0 Bft) S 180 4,9 C 6,3 C 0,0 km/h (0 Bft)
06.05.2012 05:00 7,3 C 85 % 0,0 l/m 0,2 km/h (0 Bft) S 180 4,9 C 6,3 C 0,0 km/h (0 Bft)
06.05.2012 05:01 7,3 C 85 % 0,0 l/m 0,2 km/h (0 Bft) S 180 4,9 C 6,3 C 0,0 km/h (0 Bft)
06.05.2012 05:02 7,3 C 85 % 0,0 l/m 0,2 km/h (0 Bft) S 180 4,9 C 6,3 C 0,0 km/h (0 Bft)
06.05.2012 05:03 7,3 C 85 % 0,0 l/m 0,3 km/h (0 Bft) SO 135 4,9 C 6,4 C 0,0 km/h (0 Bft)
06.05.2012 05:04 7,4 C 85 % 0,0 l/m 0,3 km/h (0 Bft) SO 135 5,0 C 6,4 C 0,0 km/h (0 Bft)
06.05.2012 05:05 7,4 C 85 % 0,0 l/m 0,6 km/h (0 Bft) W-NW 292 5,0 C 6,5 C 3,9 km/h (1 Bft)
06.05.2012 05:06 7,5 C 85 % 0,0 l/m 0,6 km/h (0 Bft) W-NW 292 5,1 C 6,5 C 3,9 km/h (1 Bft)
06.05.2012 05:07 7,5 C 85 % 0,0 l/m 0,5 km/h (0 Bft) O-SO 112 5,1 C 6,5 C 0,0 km/h (0 Bft)
06.05.2012 05:08 7,4 C 85 % 0,0 l/m 0,5 km/h (0 Bft) O-SO 112 5,0 C 6,5 C 0,0 km/h (0 Bft)
06.05.2012 05:09 7,4 C 85 % 0,0 l/m 0,5 km/h (0 Bft) S-SW 202 5,0 C 6,6 C 0,0 km/h (0 Bft)
06.05.2012 05:10 7,5 C 84 % 0,0 l/m 0,5 km/h (0 Bft) S-SW 202 5,0 C 6,6 C 0,0 km/h (0 Bft)
06.05.2012 05:11 7,5 C 84 % 0,0 l/m 0,8 km/h (0 Bft) SO 135 5,0 C 6,7 C 2,4 km/h (1 Bft)
06.05.2012 05:12 7,5 C 85 % 0,0 l/m 0,8 km/h (0 Bft) SO 135 5,1 C 6,7 C 2,4 km/h (1 Bft)
06.05.2012 05:13 7,5 C 85 % 0,0 l/m 0,8 km/h (0 Bft) W-SW 247 5,1 C 6,7 C 1,9 km/h (1 Bft)
06.05.2012 05:14 7,6 C 84 % 0,0 l/m 0,8 km/h (0 Bft) W-SW 247 5,1 C 6,7 C 1,9 km/h (1 Bft)
06.05.2012 05:15 7,6 C 84 % 0,0 l/m 0,8 km/h (0 Bft) S-SW 202 5,1 C 6,8 C 3,2 km/h (1 Bft)
06.05.2012 05:16 7,6 C 84 % 0,0 l/m 0,8 km/h (0 Bft) S-SW 202 5,1 C 6,8 C 3,2 km/h (1 Bft)
06.05.2012 05:17 7,6 C 84 % 0,0 l/m 0,8 km/h (0 Bft) W-NW 292 5,1 C 6,8 C 2,9 km/h (1 Bft)
06.05.2012 05:18 7,6 C 84 % 0,0 l/m 0,8 km/h (0 Bft) W-NW 292 5,1 C 6,8 C 2,9 km/h (1 Bft)
06.05.2012 05:19 7,6 C 84 % 0,0 l/m 0,8 km/h (0 Bft) O 90 5,1 C 6,9 C 0,0 km/h (0 Bft)
06.05.2012 05:20 7,6 C 84 % 0,0 l/m 0,8 km/h (0 Bft) O 90 5,1 C 6,9 C 0,0 km/h (0 Bft)
06.05.2012 05:21 7,6 C 84 % 0,0 l/m 0,8 km/h (0 Bft) O 90 5,1 C 6,9 C 0,0 km/h (0 Bft)
06.05.2012 05:22 7,6 C 84 % 0,0 l/m 0,8 km/h (0 Bft) O 90 5,1 C 6,9 C 0,0 km/h (0 Bft)
06.05.2012 05:23 7,6 C 84 % 0,0 l/m 0,8 km/h (0 Bft) O-SO 112 5,1 C 6,8 C 2,6 km/h (1 Bft)
06.05.2012 05:24 7,6 C 84 % 0,0 l/m 0,8 km/h (0 Bft) O-SO 112 5,1 C 6,8 C 2,6 km/h (1 Bft)
06.05.2012 05:25 7,6 C 84 % 0,0 l/m 0,8 km/h (0 Bft) S 180 5,1 C 6,8 C 0,0 km/h (0 Bft)
06.05.2012 05:26 7,6 C 84 % 0,0 l/m 0,8 km/h (0 Bft) S 180 5,1 C 6,8 C 0,0 km/h (0 Bft)
06.05.2012 05:27 7,6 C 84 % 0,0 l/m 0,5 km/h (0 Bft) O 90 5,1 C 6,9 C 0,0 km/h (0 Bft)
06.05.2012 05:28 7,6 C 84 % 0,0 l/m 0,5 km/h (0 Bft) O 90 5,1 C 6,9 C 0,0 km/h (0 Bft)
06.05.2012 05:29 7,6 C 84 % 0,0 l/m 0,3 km/h (0 Bft) SO 135 5,1 C 6,8 C 0,0 km/h (0 Bft)
06.05.2012 05:30 7,6 C 84 % 0,0 l/m 0,3 km/h (0 Bft) SO 135 5,1 C 6,8 C 0,0 km/h (0 Bft)
06.05.2012 05:31 7,6 C 84 % 0,0 l/m 0,3 km/h (0 Bft) N-NO 22 5,1 C 6,8 C 0,0 km/h (0 Bft)
06.05.2012 05:32 7,7 C 84 % 0,0 l/m 0,3 km/h (0 Bft) N-NO 22 5,2 C 6,8 C 0,0 km/h (0 Bft)
06.05.2012 05:33 7,7 C 84 % 0,0 l/m 0,3 km/h (0 Bft) O-SO 112 5,2 C 6,8 C 2,4 km/h (1 Bft)
06.05.2012 05:34 7,6 C 84 % 0,0 l/m 0,3 km/h (0 Bft) O-SO 112 5,1 C 6,8 C 2,4 km/h (1 Bft)
06.05.2012 05:35 7,6 C 84 % 0,0 l/m 0,5 km/h (0 Bft) O-SO 112 5,1 C 6,8 C 1,9 km/h (1 Bft)
06.05.2012 05:36 7,6 C 84 % 0,0 l/m 0,5 km/h (0 Bft) O-SO 112 5,1 C 6,8 C 1,9 km/h (1 Bft)
06.05.2012 05:37 7,6 C 84 % 0,0 l/m 0,5 km/h (0 Bft) SO 135 5,1 C 6,9 C 0,0 km/h (0 Bft)
06.05.2012 05:38 7,7 C 84 % 0,0 l/m 0,5 km/h (0 Bft) SO 135 5,2 C 6,9 C 0,0 km/h (0 Bft)
06.05.2012 05:39 7,7 C 84 % 0,0 l/m 0,6 km/h (0 Bft) S 180 5,2 C 6,9 C 2,1 km/h (1 Bft)
06.05.2012 05:40 7,7 C 84 % 0,0 l/m 0,6 km/h (0 Bft) S 180 5,2 C 6,9 C 2,1 km/h (1 Bft)
06.05.2012 05:41 7,7 C 84 % 0,0 l/m 0,6 km/h (0 Bft) S 180 5,2 C 6,9 C 2,1 km/h (1 Bft)
06.05.2012 05:42 7,7 C 84 % 0,0 l/m 0,6 km/h (0 Bft) S 180 5,2 C 6,9 C 2,1 km/h (1 Bft)
06.05.2012 05:43 7,7 C 84 % 0,0 l/m 0,6 km/h (0 Bft) S-SW 202 5,2 C 6,9 C 0,0 km/h (0 Bft)
06.05.2012 05:44 7,8 C 84 % 0,0 l/m 0,6 km/h (0 Bft) S-SW 202 5,3 C 6,9 C 0,0 km/h (0 Bft)
06.05.2012 05:45 7,8 C 84 % 0,0 l/m 0,3 km/h (0 Bft) S-SO 157 5,3 C 6,9 C 1,6 km/h (1 Bft)
06.05.2012 05:46 7,7 C 84 % 0,0 l/m 0,3 km/h (0 Bft) S-SO 157 5,2 C 6,9 C 1,6 km/h (1 Bft)
06.05.2012 05:47 7,7 C 84 % 0,0 l/m 0,2 km/h (0 Bft) O-SO 112 5,2 C 6,9 C 0,0 km/h (0 Bft)
06.05.2012 05:48 7,7 C 84 % 0,0 l/m 0,2 km/h (0 Bft) O-SO 112 5,2 C 6,9 C 0,0 km/h (0 Bft)
06.05.2012 05:49 7,7 C 84 % 0,0 l/m 0,2 km/h (0 Bft) N 360 5,2 C 6,8 C 0,0 km/h (0 Bft)
06.05.2012 05:50 7,7 C 84 % 0,0 l/m 0,2 km/h (0 Bft) N 360 5,2 C 6,8 C 0,0 km/h (0 Bft)
06.05.2012 05:51 7,7 C 84 % 0,0 l/m 0,2 km/h (0 Bft) N 360 5,2 C 6,8 C 0,0 km/h (0 Bft)
06.05.2012 05:52 7,7 C 84 % 0,0 l/m 0,2 km/h (0 Bft) N 360 5,2 C 6,8 C 0,0 km/h (0 Bft)
06.05.2012 05:53 7,7 C 84 % 0,0 l/m 0,2 km/h (0 Bft) SO 135 5,2 C 6,8 C 0,0 km/h (0 Bft)
06.05.2012 05:54 7,9 C 84 % 0,0 l/m 0,2 km/h (0 Bft) SO 135 5,4 C 6,8 C 0,0 km/h (0 Bft)
06.05.2012 05:55 7,9 C 84 % 0,0 l/m 0,2 km/h (0 Bft) N-NO 22 5,4 C 6,8 C 0,0 km/h (0 Bft)
06.05.2012 05:56 7,9 C 84 % 0,0 l/m 0,2 km/h (0 Bft) N-NO 22 5,4 C 6,8 C 0,0 km/h (0 Bft)
06.05.2012 05:57 7,9 C 84 % 0,0 l/m 0,0 km/h (0 Bft) S-SW 202 5,4 C 6,7 C 0,0 km/h (0 Bft)
06.05.2012 05:58 7,9 C 84 % 0,0 l/m 0,0 km/h (0 Bft) S-SW 202 5,4 C 6,7 C 0,0 km/h (0 Bft)
06.05.2012 05:59 7,9 C 84 % 0,0 l/m 0,3 km/h (0 Bft) O-SO 112 5,4 C 6,8 C 1,9 km/h (1 Bft)
06.05.2012 06:00 7,9 C 84 % 0,0 l/m 0,3 km/h (0 Bft) O-SO 112 5,4 C 6,8 C 1,9 km/h (1 Bft)
06.05.2012 06:01 7,9 C 84 % 0,0 l/m 0,3 km/h (0 Bft) O-SO 112 5,4 C 6,8 C 1,9 km/h (1 Bft)
06.05.2012 06:02 7,9 C 84 % 0,0 l/m 0,3 km/h (0 Bft) O-SO 112 5,4 C 6,8 C 1,9 km/h (1 Bft)
06.05.2012 06:03 7,9 C 84 % 0,0 l/m 0,5 km/h (0 Bft) O 90 5,4 C 6,8 C 2,6 km/h (1 Bft)
06.05.2012 06:04 7,9 C 84 % 0,0 l/m 0,5 km/h (0 Bft) O 90 5,4 C 6,8 C 2,6 km/h (1 Bft)
06.05.2012 06:05 7,9 C 84 % 0,0 l/m 1,1 km/h (1 Bft) O-SO 112 5,4 C 6,9 C 6,6 km/h (2 Bft)
06.05.2012 06:06 7,9 C 84 % 0,0 l/m 1,1 km/h (1 Bft) O-SO 112 5,4 C 6,9 C 6,6 km/h (2 Bft)
06.05.2012 06:07 7,9 C 84 % 0,0 l/m 1,6 km/h (1 Bft) O-SO 112 5,4 C 6,9 C 3,9 km/h (1 Bft)
06.05.2012 06:08 8,0 C 83 % 0,0 l/m 1,6 km/h (1 Bft) O-SO 112 5,3 C 6,9 C 3,9 km/h (1 Bft)
06.05.2012 06:09 8,0 C 83 % 0,0 l/m 2,7 km/h (1 Bft) O-SO 112 5,3 C 7,0 C 6,1 km/h (2 Bft)
06.05.2012 06:10 8,0 C 83 % 0,0 l/m 2,7 km/h (1 Bft) O-SO 112 5,3 C 7,0 C 6,1 km/h (2 Bft)
06.05.2012 06:11 8,0 C 83 % 0,0 l/m 3,2 km/h (1 Bft) SO 135 5,3 C 7,1 C 4,3 km/h (1 Bft)
06.05.2012 06:12 8,0 C 83 % 0,0 l/m 3,2 km/h (1 Bft) SO 135 5,3 C 7,1 C 4,3 km/h (1 Bft)
06.05.2012 06:13 8,0 C 83 % 0,0 l/m 3,7 km/h (1 Bft) O-SO 112 5,3 C 7,0 C 5,8 km/h (2 Bft)
06.05.2012 06:14 8,0 C 83 % 0,0 l/m 3,7 km/h (1 Bft) O-SO 112 5,3 C 7,0 C 5,8 km/h (2 Bft)
06.05.2012 06:15 8,0 C 83 % 0,0 l/m 4,2 km/h (1 Bft) O-SO 112 5,3 C 6,8 C 4,2 km/h (1 Bft)
06.05.2012 06:16 8,0 C 83 % 0,0 l/m 4,2 km/h (1 Bft) O-SO 112 5,3 C 6,8 C 4,2 km/h (1 Bft)
06.05.2012 06:17 8,0 C 83 % 0,0 l/m 4,0 km/h (1 Bft) SO 135 5,3 C 6,8 C 4,8 km/h (1 Bft)
06.05.2012 06:18 8,0 C 83 % 0,0 l/m 4,0 km/h (1 Bft) SO 135 5,3 C 6,8 C 4,8 km/h (1 Bft)
06.05.2012 06:19 8,0 C 83 % 0,0 l/m 3,7 km/h (1 Bft) NO 45 5,3 C 7,0 C 2,6 km/h (1 Bft)
06.05.2012 06:20 7,9 C 83 % 0,0 l/m 3,7 km/h (1 Bft) NO 45 5,2 C 7,0 C 2,6 km/h (1 Bft)
06.05.2012 06:21 7,9 C 83 % 0,0 l/m 3,7 km/h (1 Bft) NO 45 5,2 C 7,0 C 2,6 km/h (1 Bft)
06.05.2012 06:22 8,0 C 83 % 0,0 l/m 3,7 km/h (1 Bft) NO 45 5,3 C 7,0 C 2,6 km/h (1 Bft)
06.05.2012 06:23 8,0 C 83 % 0,0 l/m 2,1 km/h (1 Bft) O-SO 112 5,3 C 7,1 C 0,0 km/h (0 Bft)
06.05.2012 06:24 8,0 C 83 % 0,0 l/m 2,1 km/h (1 Bft) O-SO 112 5,3 C 7,1 C 0,0 km/h (0 Bft)
06.05.2012 06:25 8,0 C 83 % 0,0 l/m 1,6 km/h (1 Bft) NW 315 5,3 C 7,1 C 0,0 km/h (0 Bft)
06.05.2012 06:26 8,0 C 83 % 0,0 l/m 1,6 km/h (1 Bft) NW 315 5,3 C 7,1 C 0,0 km/h (0 Bft)
06.05.2012 06:27 8,0 C 83 % 0,0 l/m 1,0 km/h (0 Bft) N-NO 22 5,3 C 7,1 C 0,0 km/h (0 Bft)
06.05.2012 06:28 8,0 C 84 % 0,0 l/m 1,0 km/h (0 Bft) N-NO 22 5,5 C 7,1 C 0,0 km/h (0 Bft)
06.05.2012 06:29 8,0 C 84 % 0,0 l/m 0,5 km/h (0 Bft) O-SO 112 5,5 C 7,1 C 0,0 km/h (0 Bft)
06.05.2012 06:30 8,0 C 84 % 0,0 l/m 0,5 km/h (0 Bft) O-SO 112 5,5 C 7,1 C 0,0 km/h (0 Bft)
06.05.2012 06:31 8,0 C 84 % 0,0 l/m 0,2 km/h (0 Bft) SO 135 5,5 C 7,1 C 2,1 km/h (1 Bft)
06.05.2012 06:32 8,1 C 83 % 0,0 l/m 0,2 km/h (0 Bft) SO 135 5,4 C 7,1 C 2,1 km/h (1 Bft)
06.05.2012 06:33 8,1 C 83 % 0,0 l/m 0,3 km/h (0 Bft) S 180 5,4 C 7,1 C 0,0 km/h (0 Bft)
06.05.2012 06:34 8,1 C 83 % 0,0 l/m 0,3 km/h (0 Bft) S 180 5,4 C 7,1 C 0,0 km/h (0 Bft)
06.05.2012 06:35 8,1 C 83 % 0,0 l/m 0,3 km/h (0 Bft) S-SW 202 5,4 C 7,1 C 0,0 km/h (0 Bft)
06.05.2012 06:36 8,2 C 84 % 0,0 l/m 0,3 km/h (0 Bft) S-SW 202 5,7 C 7,1 C 0,0 km/h (0 Bft)
06.05.2012 06:37 8,2 C 84 % 0,0 l/m 0,3 km/h (0 Bft) NO 45 5,7 C 7,2 C 0,0 km/h (0 Bft)
06.05.2012 06:38 8,3 C 84 % 0,0 l/m 0,5 km/h (0 Bft) NO 45 5,8 C 7,2 C 2,9 km/h (1 Bft)
06.05.2012 06:39 8,3 C 84 % 0,0 l/m 0,5 km/h (0 Bft) NO 45 5,8 C 7,2 C 2,9 km/h (1 Bft)
06.05.2012 06:40 8,3 C 84 % 0,0 l/m 0,5 km/h (0 Bft) NO 45 5,8 C 7,2 C 2,9 km/h (1 Bft)
06.05.2012 06:41 8,3 C 84 % 0,0 l/m 0,5 km/h (0 Bft) NO 45 5,8 C 7,2 C 2,9 km/h (1 Bft)
06.05.2012 06:42 8,3 C 84 % 0,0 l/m 0,5 km/h (0 Bft) NO 45 5,8 C 7,2 C 2,9 km/h (1 Bft)
06.05.2012 06:43 8,3 C 84 % 0,0 l/m 1,0 km/h (0 Bft) N-NO 22 5,8 C 7,4 C 1,9 km/h (1 Bft)
06.05.2012 06:44 8,4 C 84 % 0,0 l/m 1,0 km/h (0 Bft) N-NO 22 5,9 C 7,4 C 1,9 km/h (1 Bft)
06.05.2012 06:45 8,4 C 84 % 0,0 l/m 1,6 km/h (1 Bft) O 90 5,9 C 7,4 C 5,1 km/h (1 Bft)
06.05.2012 06:46 8,4 C 84 % 0,0 l/m 1,6 km/h (1 Bft) O 90 5,9 C 7,4 C 5,1 km/h (1 Bft)
06.05.2012 06:47 8,4 C 84 % 0,0 l/m 2,1 km/h (1 Bft) O-SO 112 5,9 C 7,4 C 4,7 km/h (1 Bft)
06.05.2012 06:48 8,5 C 84 % 0,0 l/m 2,1 km/h (1 Bft) O-SO 112 6,0 C 7,4 C 4,7 km/h (1 Bft)
06.05.2012 06:49 8,5 C 84 % 0,0 l/m 2,7 km/h (1 Bft) S-SO 157 6,0 C 7,5 C 1,9 km/h (1 Bft)
06.05.2012 06:50 8,4 C 84 % 0,0 l/m 2,7 km/h (1 Bft) S-SO 157 5,9 C 7,5 C 1,9 km/h (1 Bft)
06.05.2012 06:51 8,4 C 84 % 0,0 l/m 3,1 km/h (1 Bft) O-SO 112 5,9 C 7,6 C 2,7 km/h (1 Bft)
06.05.2012 06:52 8,5 C 84 % 0,0 l/m 3,1 km/h (1 Bft) O-SO 112 6,0 C 7,6 C 2,7 km/h (1 Bft)
06.05.2012 06:53 8,5 C 84 % 0,0 l/m 2,9 km/h (1 Bft) O-SO 112 6,0 C 7,7 C 3,5 km/h (1 Bft)
06.05.2012 06:54 8,5 C 84 % 0,0 l/m 2,9 km/h (1 Bft) O-SO 112 6,0 C 7,7 C 3,5 km/h (1 Bft)
06.05.2012 06:55 8,5 C 84 % 0,0 l/m 3,2 km/h (1 Bft) O-SO 112 6,0 C 7,7 C 4,0 km/h (1 Bft)
06.05.2012 06:56 8,6 C 84 % 0,0 l/m 3,2 km/h (1 Bft) O-SO 112 6,1 C 7,7 C 4,0 km/h (1 Bft)
06.05.2012 06:57 8,6 C 84 % 0,0 l/m 2,7 km/h (1 Bft) SO 135 6,1 C 7,8 C 0,0 km/h (0 Bft)
06.05.2012 06:58 8,7 C 83 % 0,0 l/m 2,7 km/h (1 Bft) SO 135 6,0 C 7,8 C 0,0 km/h (0 Bft)
06.05.2012 06:59 8,7 C 83 % 0,0 l/m 2,3 km/h (1 Bft) O-SO 112 6,0 C 7,8 C 4,7 km/h (1 Bft)
06.05.2012 07:00 8,8 C 84 % 0,0 l/m 2,3 km/h (1 Bft) O-SO 112 6,2 C 7,8 C 4,7 km/h (1 Bft)
06.05.2012 07:01 8,8 C 84 % 0,0 l/m 2,3 km/h (1 Bft) O-SO 112 6,2 C 7,8 C 4,7 km/h (1 Bft)
06.05.2012 07:02 8,8 C 83 % 0,0 l/m 2,3 km/h (1 Bft) O-SO 112 6,1 C 7,8 C 4,7 km/h (1 Bft)
06.05.2012 07:03 8,8 C 83 % 0,0 l/m 1,6 km/h (1 Bft) S 180 6,1 C 7,9 C 0,0 km/h (0 Bft)
06.05.2012 07:04 9,0 C 83 % 0,0 l/m 1,6 km/h (1 Bft) S 180 6,3 C 7,9 C 0,0 km/h (0 Bft)
06.05.2012 07:05 9,0 C 83 % 0,0 l/m 1,3 km/h (1 Bft) O-SO 112 6,3 C 8,0 C 1,8 km/h (1 Bft)
06.05.2012 07:06 9,1 C 83 % 0,0 l/m 1,3 km/h (1 Bft) O-SO 112 6,4 C 8,0 C 1,8 km/h (1 Bft)
06.05.2012 07:07 9,1 C 83 % 0,0 l/m 1,1 km/h (1 Bft) NO 45 6,4 C 8,1 C 2,1 km/h (1 Bft)
06.05.2012 07:08 9,1 C 83 % 0,0 l/m 1,1 km/h (1 Bft) NO 45 6,4 C 8,1 C 2,1 km/h (1 Bft)
06.05.2012 07:09 9,1 C 83 % 0,0 l/m 1,6 km/h (1 Bft) O-SO 112 6,4 C 8,1 C 2,7 km/h (1 Bft)
06.05.2012 07:10 9,1 C 83 % 0,0 l/m 1,6 km/h (1 Bft) O-SO 112 6,4 C 8,1 C 2,7 km/h (1 Bft)
06.05.2012 07:11 9,1 C 83 % 0,0 l/m 1,4 km/h (1 Bft) O-NO 67 6,4 C 8,2 C 1,9 km/h (1 Bft)
06.05.2012 07:12 9,2 C 83 % 0,0 l/m 1,4 km/h (1 Bft) O-NO 67 6,5 C 8,2 C 1,9 km/h (1 Bft)
06.05.2012 07:13 9,2 C 83 % 0,0 l/m 1,8 km/h (1 Bft) SO 135 6,5 C 8,3 C 2,6 km/h (1 Bft)
06.05.2012 07:14 9,2 C 83 % 0,0 l/m 1,8 km/h (1 Bft) SO 135 6,5 C 8,3 C 2,6 km/h (1 Bft)
06.05.2012 07:15 9,2 C 83 % 0,0 l/m 1,9 km/h (1 Bft) W 270 6,5 C 8,3 C 0,0 km/h (0 Bft)
06.05.2012 07:16 9,3 C 83 % 0,0 l/m 1,9 km/h (1 Bft) W 270 6,6 C 8,3 C 0,0 km/h (0 Bft)
06.05.2012 07:17 9,3 C 83 % 0,0 l/m 1,9 km/h (1 Bft) SO 135 6,6 C 8,4 C 2,6 km/h (1 Bft)
06.05.2012 07:18 9,5 C 83 % 0,0 l/m 1,9 km/h (1 Bft) SO 135 6,8 C 8,4 C 2,6 km/h (1 Bft)
06.05.2012 07:19 9,5 C 83 % 0,0 l/m 1,9 km/h (1 Bft) O 90 6,8 C 8,5 C 2,6 km/h (1 Bft)
06.05.2012 07:20 9,5 C 83 % 0,0 l/m 1,9 km/h (1 Bft) O 90 6,8 C 8,5 C 2,6 km/h (1 Bft)
06.05.2012 07:21 9,5 C 83 % 0,0 l/m 1,9 km/h (1 Bft) O 90 6,8 C 8,5 C 2,6 km/h (1 Bft)
06.05.2012 07:22 9,4 C 83 % 0,0 l/m 1,9 km/h (1 Bft) O 90 6,7 C 8,5 C 2,6 km/h (1 Bft)
06.05.2012 07:23 9,4 C 83 % 0,0 l/m 3,1 km/h (1 Bft) O-SO 112 6,7 C 8,7 C 4,8 km/h (1 Bft)
06.05.2012 07:24 9,5 C 82 % 0,0 l/m 3,1 km/h (1 Bft) O-SO 112 6,6 C 8,7 C 4,8 km/h (1 Bft)
06.05.2012 07:25 9,5 C 82 % 0,0 l/m 3,4 km/h (1 Bft) O-SO 112 6,6 C 8,7 C 2,9 km/h (1 Bft)
06.05.2012 07:26 9,6 C 82 % 0,0 l/m 3,4 km/h (1 Bft) O-SO 112 6,7 C 8,7 C 2,9 km/h (1 Bft)
06.05.2012 07:27 9,6 C 82 % 0,0 l/m 4,7 km/h (1 Bft) O-SO 112 6,7 C 8,6 C 9,0 km/h (2 Bft)
06.05.2012 07:28 9,5 C 82 % 0,0 l/m 4,7 km/h (1 Bft) O-SO 112 6,6 C 8,6 C 9,0 km/h (2 Bft)
06.05.2012 07:29 9,5 C 82 % 0,0 l/m 5,6 km/h (1 Bft) S 180 6,6 C 8,4 C 12,2 km/h (2 Bft)
06.05.2012 07:30 9,5 C 82 % 0,0 l/m 5,6 km/h (1 Bft) S 180 6,6 C 8,4 C 12,2 km/h (2 Bft)
06.05.2012 07:31 9,5 C 82 % 0,0 l/m 6,3 km/h (2 Bft) O-SO 112 6,6 C 8,2 C 14,6 km/h (3 Bft)
06.05.2012 07:32 9,5 C 82 % 0,0 l/m 6,3 km/h (2 Bft) O-SO 112 6,6 C 8,2 C 14,6 km/h (3 Bft)
06.05.2012 07:33 9,5 C 82 % 0,0 l/m 6,8 km/h (2 Bft) SO 135 6,6 C 7,8 C 8,9 km/h (2 Bft)
06.05.2012 07:34 9,5 C 82 % 0,0 l/m 6,8 km/h (2 Bft) SO 135 6,6 C 7,8 C 8,9 km/h (2 Bft)
06.05.2012 07:35 9,5 C 82 % 0,0 l/m 6,9 km/h (2 Bft) SO 135 6,6 C 7,7 C 6,9 km/h (2 Bft)
06.05.2012 07:36 9,5 C 82 % 0,0 l/m 6,9 km/h (2 Bft) SO 135 6,6 C 7,7 C 14,6 km/h (3 Bft)
06.05.2012 07:37 9,5 C 82 % 0,0 l/m 7,2 km/h (2 Bft) SO 135 6,6 C 7,4 C 7,4 km/h (2 Bft)
06.05.2012 07:38 9,5 C 82 % 0,0 l/m 7,2 km/h (2 Bft) SO 135 6,6 C 7,4 C 7,4 km/h (2 Bft)
06.05.2012 07:39 9,5 C 82 % 0,0 l/m 7,9 km/h (2 Bft) O-SO 112 6,6 C 6,6 C 12,1 km/h (2 Bft)
06.05.2012 07:40 9,5 C 81 % 0,0 l/m 7,9 km/h (2 Bft) O-SO 112 6,4 C 6,6 C 12,1 km/h (2 Bft)
06.05.2012 07:41 9,5 C 81 % 0,0 l/m 7,9 km/h (2 Bft) O-SO 112 6,4 C 6,6 C 12,1 km/h (2 Bft)
06.05.2012 07:42 9,5 C 81 % 0,0 l/m 7,9 km/h (2 Bft) O-SO 112 6,4 C 6,6 C 12,1 km/h (2 Bft)
06.05.2012 07:43 9,5 C 81 % 0,0 l/m 7,9 km/h (2 Bft) O-SO 112 6,4 C 6,6 C 8,9 km/h (2 Bft)
06.05.2012 07:44 9,5 C 81 % 0,0 l/m 7,9 km/h (2 Bft) O-SO 112 6,4 C 6,6 C 8,9 km/h (2 Bft)
06.05.2012 07:45 9,5 C 81 % 0,0 l/m 8,0 km/h (2 Bft) S-SO 157 6,4 C 6,5 C 8,7 km/h (2 Bft)
06.05.2012 07:46 9,5 C 81 % 0,0 l/m 8,0 km/h (2 Bft) S-SO 157 6,4 C 6,5 C 16,4 km/h (3 Bft)
06.05.2012 07:47 9,5 C 81 % 0,0 l/m 8,7 km/h (2 Bft) O-SO 112 6,4 C 5,9 C 13,4 km/h (3 Bft)
06.05.2012 07:48 9,6 C 81 % 0,0 l/m 8,7 km/h (2 Bft) O-SO 112 6,5 C 5,9 C 13,4 km/h (3 Bft)
06.05.2012 07:49 9,6 C 81 % 0,0 l/m 8,2 km/h (2 Bft) SO 135 6,5 C 6,3 C 8,5 km/h (2 Bft)
06.05.2012 07:50 9,6 C 81 % 0,0 l/m 8,2 km/h (2 Bft) SO 135 6,5 C 6,3 C 8,5 km/h (2 Bft)
06.05.2012 07:51 9,6 C 81 % 0,0 l/m 7,9 km/h (2 Bft) N 360 6,5 C 6,5 C 8,7 km/h (2 Bft)
06.05.2012 07:52 9,6 C 81 % 0,0 l/m 7,9 km/h (2 Bft) N 360 6,5 C 6,5 C 8,7 km/h (2 Bft)
06.05.2012 07:53 9,6 C 81 % 0,0 l/m 7,9 km/h (2 Bft) S-SO 157 6,5 C 6,4 C 8,5 km/h (2 Bft)
06.05.2012 07:54 9,6 C 81 % 0,0 l/m 7,9 km/h (2 Bft) S-SO 157 6,5 C 6,4 C 8,5 km/h (2 Bft)
06.05.2012 07:55 9,6 C 81 % 0,0 l/m 7,9 km/h (2 Bft) SO 135 6,5 C 6,4 C 10,8 km/h (2 Bft)
06.05.2012 07:56 9,6 C 80 % 0,0 l/m 7,9 km/h (2 Bft) SO 135 6,3 C 6,4 C 10,8 km/h (2 Bft)
06.05.2012 07:57 9,6 C 80 % 0,0 l/m 7,9 km/h (2 Bft) O-SO 112 6,3 C 6,4 C 6,9 km/h (2 Bft)
06.05.2012 07:58 9,6 C 80 % 0,0 l/m 7,9 km/h (2 Bft) O-SO 112 6,3 C 6,4 C 6,9 km/h (2 Bft)
06.05.2012 07:59 9,6 C 80 % 0,0 l/m 7,4 km/h (2 Bft) O-SO 112 6,3 C 6,8 C 9,7 km/h (2 Bft)
06.05.2012 08:00 9,7 C 81 % 0,0 l/m 7,4 km/h (2 Bft) O-SO 112 6,6 C 6,8 C 9,7 km/h (2 Bft)
06.05.2012 08:01 9,7 C 81 % 0,0 l/m 7,4 km/h (2 Bft) O-SO 112 6,6 C 6,8 C 9,7 km/h (2 Bft)
06.05.2012 08:02 9,6 C 81 % 0,0 l/m 7,4 km/h (2 Bft) O-SO 112 6,5 C 6,8 C 9,7 km/h (2 Bft)
06.05.2012 08:03 9,6 C 81 % 0,0 l/m 7,1 km/h (2 Bft) SO 135 6,5 C 7,1 C 5,3 km/h (1 Bft)
06.05.2012 08:04 9,7 C 80 % 0,0 l/m 7,1 km/h (2 Bft) SO 135 6,4 C 7,1 C 5,3 km/h (1 Bft)
06.05.2012 08:05 9,7 C 80 % 0,0 l/m 6,4 km/h (2 Bft) S 180 6,4 C 7,8 C 5,3 km/h (1 Bft)
06.05.2012 08:06 9,7 C 81 % 0,0 l/m 6,4 km/h (2 Bft) S 180 6,6 C 7,8 C 5,3 km/h (1 Bft)
06.05.2012 08:07 9,7 C 81 % 0,0 l/m 6,3 km/h (2 Bft) O-SO 112 6,6 C 7,9 C 8,2 km/h (2 Bft)
06.05.2012 08:08 9,8 C 81 % 0,0 l/m 6,3 km/h (2 Bft) O-SO 112 6,7 C 7,9 C 8,2 km/h (2 Bft)
06.05.2012 08:09 9,8 C 81 % 0,0 l/m 6,8 km/h (2 Bft) SO 135 6,7 C 7,5 C 17,7 km/h (3 Bft)
06.05.2012 08:10 9,7 C 80 % 0,0 l/m 6,8 km/h (2 Bft) SO 135 6,4 C 7,5 C 17,7 km/h (3 Bft)
06.05.2012 08:11 9,7 C 80 % 0,0 l/m 7,7 km/h (2 Bft) S-SO 157 6,4 C 6,6 C 12,6 km/h (3 Bft)
06.05.2012 08:12 9,7 C 80 % 0,0 l/m 7,7 km/h (2 Bft) S-SO 157 6,4 C 6,6 C 12,6 km/h (3 Bft)
06.05.2012 08:13 9,7 C 80 % 0,0 l/m 8,5 km/h (2 Bft) O-SO 112 6,4 C 5,8 C 10,9 km/h (2 Bft)
06.05.2012 08:14 9,7 C 80 % 0,0 l/m 8,5 km/h (2 Bft) O-SO 112 6,4 C 5,8 C 10,9 km/h (2 Bft)
06.05.2012 08:15 9,7 C 80 % 0,0 l/m 9,2 km/h (2 Bft) O-SO 112 6,4 C 4,9 C 9,3 km/h (2 Bft)
06.05.2012 08:16 9,7 C 80 % 0,0 l/m 9,2 km/h (2 Bft) O-SO 112 6,4 C 4,9 C 17,7 km/h (3 Bft)
06.05.2012 08:17 9,7 C 80 % 0,0 l/m 10,0 km/h (2 Bft) O-SO 112 6,4 C 4,3 C 12,2 km/h (2 Bft)
06.05.2012 08:18 9,6 C 80 % 0,0 l/m 10,0 km/h (2 Bft) S-SO 157 6,3 C 4,3 C 8,5 km/h (2 Bft)
06.05.2012 08:19 9,6 C 80 % 0,0 l/m 10,0 km/h (2 Bft) S-SO 157 6,3 C 4,3 C 8,5 km/h (2 Bft)
06.05.2012 08:21 9,6 C 80 % 0,0 l/m 10,0 km/h (2 Bft) S-SO 157 6,3 C 4,3 C 8,5 km/h (2 Bft)
06.05.2012 08:22 9,6 C 80 % 0,0 l/m 10,0 km/h (2 Bft) S-SO 157 6,3 C 4,3 C 8,5 km/h (2 Bft)
06.05.2012 08:23 9,6 C 80 % 0,0 l/m 8,4 km/h (2 Bft) SO 135 6,3 C 5,5 C 10,3 km/h (2 Bft)
06.05.2012 08:24 9,6 C 81 % 0,0 l/m 8,0 km/h (2 Bft) O-SO 112 6,5 C 5,6 C 12,2 km/h (2 Bft)
06.05.2012 08:25 9,6 C 81 % 0,0 l/m 8,0 km/h (2 Bft) O-SO 112 6,5 C 5,6 C 12,2 km/h (2 Bft)
06.05.2012 08:26 9,7 C 81 % 0,0 l/m 8,0 km/h (2 Bft) O-SO 112 6,6 C 5,6 C 12,2 km/h (2 Bft)
06.05.2012 08:27 9,7 C 81 % 0,0 l/m 7,6 km/h (2 Bft) SO 135 6,6 C 6,1 C 5,0 km/h (1 Bft)
06.05.2012 08:28 9,6 C 81 % 0,0 l/m 7,6 km/h (2 Bft) SO 135 6,5 C 6,1 C 5,0 km/h (1 Bft)
06.05.2012 08:29 9,6 C 81 % 0,0 l/m 6,8 km/h (2 Bft) SO 135 6,5 C 7,0 C 11,9 km/h (2 Bft)
06.05.2012 08:30 9,6 C 81 % 0,0 l/m 6,8 km/h (2 Bft) SO 135 6,5 C 7,0 C 11,9 km/h (2 Bft)
06.05.2012 08:31 9,6 C 81 % 0,0 l/m 7,2 km/h (2 Bft) O-SO 112 6,5 C 6,5 C 22,2 km/h (4 Bft)
06.05.2012 08:32 9,6 C 80 % 0,0 l/m 7,2 km/h (2 Bft) O-SO 112 6,3 C 6,5 C 22,2 km/h (4 Bft)
06.05.2012 08:33 9,6 C 80 % 0,0 l/m 8,4 km/h (2 Bft) O-SO 112 6,3 C 5,2 C 13,4 km/h (3 Bft)
06.05.2012 08:34 9,5 C 80 % 0,0 l/m 8,4 km/h (2 Bft) O-SO 112 6,2 C 5,2 C 13,4 km/h (3 Bft)
06.05.2012 08:35 9,5 C 80 % 0,0 l/m 8,4 km/h (2 Bft) O-SO 112 6,2 C 5,1 C 15,1 km/h (3 Bft)
06.05.2012 08:36 9,5 C 80 % 0,0 l/m 8,4 km/h (2 Bft) O-SO 112 6,2 C 5,1 C 22,2 km/h (4 Bft)
06.05.2012 08:37 9,5 C 80 % 0,0 l/m 8,7 km/h (2 Bft) SO 135 6,2 C 4,9 C 13,4 km/h (3 Bft)
06.05.2012 08:38 9,5 C 81 % 0,0 l/m 8,7 km/h (2 Bft) SO 135 6,4 C 4,9 C 13,4 km/h (3 Bft)
06.05.2012 08:39 9,5 C 81 % 0,0 l/m 9,0 km/h (2 Bft) SO 135 6,4 C 4,5 C 8,0 km/h (2 Bft)
06.05.2012 08:40 9,5 C 81 % 0,0 l/m 9,0 km/h (2 Bft) SO 135 6,4 C 4,5 C 8,0 km/h (2 Bft)
06.05.2012 08:41 9,5 C 81 % 0,0 l/m 9,0 km/h (2 Bft) SO 135 6,4 C 4,5 C 8,0 km/h (2 Bft)
06.05.2012 08:42 9,5 C 81 % 0,0 l/m 9,0 km/h (2 Bft) SO 135 6,4 C 4,5 C 8,0 km/h (2 Bft)
06.05.2012 08:43 9,5 C 81 % 0,0 l/m 8,9 km/h (2 Bft) O-SO 112 6,4 C 4,5 C 12,1 km/h (2 Bft)
06.05.2012 08:44 9,5 C 80 % 0,0 l/m 8,9 km/h (2 Bft) O-SO 112 6,2 C 4,5 C 12,1 km/h (2 Bft)
06.05.2012 08:45 9,5 C 80 % 0,0 l/m 9,2 km/h (2 Bft) S 180 6,2 C 4,2 C 11,1 km/h (2 Bft)
06.05.2012 08:46 9,4 C 80 % 0,0 l/m 9,2 km/h (2 Bft) S 180 6,1 C 4,2 C 11,1 km/h (2 Bft)
06.05.2012 08:47 9,4 C 80 % 0,0 l/m 8,7 km/h (2 Bft) S 180 6,1 C 4,5 C 13,4 km/h (3 Bft)
06.05.2012 08:48 9,4 C 80 % 0,0 l/m 8,7 km/h (2 Bft) S 180 6,1 C 4,5 C 13,4 km/h (3 Bft)
06.05.2012 08:49 9,4 C 80 % 0,0 l/m 8,4 km/h (2 Bft) NW 315 6,1 C 4,8 C 2,7 km/h (1 Bft)
06.05.2012 08:50 9,5 C 80 % 0,0 l/m 8,4 km/h (2 Bft) NW 315 6,2 C 4,8 C 2,7 km/h (1 Bft)
06.05.2012 08:51 9,5 C 80 % 0,0 l/m 8,5 km/h (2 Bft) O-SO 112 6,2 C 4,7 C 13,2 km/h (3 Bft)
06.05.2012 08:52 9,5 C 80 % 0,0 l/m 8,5 km/h (2 Bft) O-SO 112 6,2 C 4,7 C 13,2 km/h (3 Bft)
06.05.2012 08:53 9,5 C 80 % 0,0 l/m 7,6 km/h (2 Bft) O-SO 112 6,2 C 5,6 C 12,2 km/h (2 Bft)
06.05.2012 08:54 9,5 C 80 % 0,0 l/m 7,6 km/h (2 Bft) O-SO 112 6,2 C 5,6 C 12,2 km/h (2 Bft)
06.05.2012 08:55 9,5 C 80 % 0,0 l/m 6,4 km/h (2 Bft) SO 135 6,2 C 6,9 C 7,9 km/h (2 Bft)
06.05.2012 08:56 9,6 C 80 % 0,0 l/m 6,4 km/h (2 Bft) SO 135 6,3 C 6,9 C 7,9 km/h (2 Bft)
06.05.2012 08:57 9,6 C 80 % 0,0 l/m 6,0 km/h (2 Bft) O-NO 67 6,3 C 7,1 C 9,3 km/h (2 Bft)
06.05.2012 08:58 9,7 C 80 % 0,0 l/m 6,0 km/h (2 Bft) O-NO 67 6,4 C 7,1 C 9,3 km/h (2 Bft)
06.05.2012 08:59 9,7 C 80 % 0,0 l/m 5,5 km/h (1 Bft) NO 45 6,4 C 7,3 C 6,1 km/h (2 Bft)
06.05.2012 09:00 9,6 C 80 % 0,0 l/m 5,5 km/h (1 Bft) NO 45 6,3 C 7,3 C 6,1 km/h (2 Bft)
06.05.2012 09:01 9,6 C 80 % 0,0 l/m 5,5 km/h (1 Bft) NO 45 6,3 C 7,3 C 6,1 km/h (2 Bft)
06.05.2012 09:02 9,6 C 80 % 0,0 l/m 5,5 km/h (1 Bft) NO 45 6,3 C 7,3 C 6,1 km/h (2 Bft)
06.05.2012 09:03 9,6 C 80 % 0,0 l/m 5,6 km/h (1 Bft) O-SO 112 6,3 C 7,4 C 7,6 km/h (2 Bft)
06.05.2012 09:04 9,7 C 80 % 0,0 l/m 5,6 km/h (1 Bft) O-SO 112 6,4 C 7,4 C 7,6 km/h (2 Bft)
06.05.2012 09:05 9,7 C 80 % 0,0 l/m 5,5 km/h (1 Bft) O-SO 112 6,4 C 7,4 C 3,5 km/h (1 Bft)
06.05.2012 09:06 9,6 C 80 % 0,0 l/m 5,5 km/h (1 Bft) O-SO 112 6,3 C 7,4 C 3,5 km/h (1 Bft)
06.05.2012 09:07 9,6 C 80 % 0,0 l/m 5,3 km/h (1 Bft) O-SO 112 6,3 C 7,6 C 3,9 km/h (1 Bft)
06.05.2012 09:08 9,7 C 80 % 0,0 l/m 5,3 km/h (1 Bft) O-SO 112 6,4 C 7,6 C 3,9 km/h (1 Bft)
06.05.2012 09:09 9,7 C 80 % 0,0 l/m 5,3 km/h (1 Bft) SO 135 6,4 C 7,6 C 6,1 km/h (2 Bft)
06.05.2012 09:10 9,6 C 79 % 0,0 l/m 5,3 km/h (1 Bft) SO 135 6,1 C 7,6 C 6,1 km/h (2 Bft)
06.05.2012 09:11 9,6 C 79 % 0,0 l/m 5,5 km/h (1 Bft) O-SO 112 6,1 C 7,6 C 5,0 km/h (1 Bft)
06.05.2012 09:12 9,7 C 79 % 0,0 l/m 5,5 km/h (1 Bft) O-SO 112 6,2 C 7,6 C 5,0 km/h (1 Bft)
06.05.2012 09:13 9,7 C 79 % 0,0 l/m 5,3 km/h (1 Bft) O-NO 67 6,2 C 7,7 C 7,6 km/h (2 Bft)
06.05.2012 09:14 9,6 C 79 % 0,0 l/m 5,3 km/h (1 Bft) O-NO 67 6,1 C 7,7 C 7,6 km/h (2 Bft)
06.05.2012 09:15 9,6 C 79 % 0,0 l/m 5,1 km/h (1 Bft) O 90 6,1 C 7,7 C 3,4 km/h (1 Bft)
06.05.2012 09:16 9,7 C 79 % 0,0 l/m 5,1 km/h (1 Bft) O 90 6,2 C 7,7 C 3,4 km/h (1 Bft)
06.05.2012 09:17 9,7 C 79 % 0,0 l/m 4,8 km/h (1 Bft) SO 135 6,2 C 7,8 C 2,1 km/h (1 Bft)
06.05.2012 09:18 9,7 C 79 % 0,0 l/m 4,8 km/h (1 Bft) SO 135 6,2 C 7,8 C 2,1 km/h (1 Bft)
06.05.2012 09:19 9,7 C 79 % 0,0 l/m 4,3 km/h (1 Bft) W-NW 292 6,2 C 8,0 C 10,1 km/h (2 Bft)
06.05.2012 09:20 9,7 C 78 % 0,0 l/m 4,3 km/h (1 Bft) W-NW 292 6,1 C 8,0 C 10,1 km/h (2 Bft)
06.05.2012 09:21 9,7 C 78 % 0,0 l/m 4,3 km/h (1 Bft) W-NW 292 6,1 C 8,0 C 10,1 km/h (2 Bft)
06.05.2012 09:22 9,7 C 79 % 0,0 l/m 4,3 km/h (1 Bft) W-NW 292 6,2 C 8,0 C 10,1 km/h (2 Bft)
06.05.2012 09:23 9,7 C 79 % 0,0 l/m 3,5 km/h (1 Bft) O-SO 112 6,2 C 8,4 C 8,4 km/h (2 Bft)
06.05.2012 09:24 9,7 C 79 % 0,0 l/m 3,5 km/h (1 Bft) O-SO 112 6,2 C 8,4 C 8,4 km/h (2 Bft)
06.05.2012 09:25 9,7 C 79 % 0,0 l/m 3,2 km/h (1 Bft) S 180 6,2 C 8,4 C 2,3 km/h (1 Bft)
06.05.2012 09:26 9,6 C 78 % 0,0 l/m 3,2 km/h (1 Bft) S 180 6,0 C 8,4 C 2,3 km/h (1 Bft)
06.05.2012 09:27 9,6 C 78 % 0,0 l/m 2,4 km/h (1 Bft) O 90 6,0 C 8,4 C 2,9 km/h (1 Bft)
06.05.2012 09:28 9,7 C 78 % 0,0 l/m 2,9 km/h (1 Bft) SO 135 6,1 C 8,5 C 7,7 km/h (2 Bft)
06.05.2012 09:29 9,7 C 78 % 0,0 l/m 2,9 km/h (1 Bft) SO 135 6,1 C 8,5 C 7,7 km/h (2 Bft)
06.05.2012 09:30 9,7 C 78 % 0,0 l/m 2,9 km/h (1 Bft) SO 135 6,1 C 8,5 C 7,7 km/h (2 Bft)
06.05.2012 09:31 9,7 C 78 % 0,0 l/m 2,9 km/h (1 Bft) O-SO 112 6,1 C 8,5 C 3,4 km/h (1 Bft)
06.05.2012 09:32 9,7 C 78 % 0,0 l/m 2,9 km/h (1 Bft) O-SO 112 6,1 C 8,5 C 3,4 km/h (1 Bft)
06.05.2012 09:33 9,7 C 78 % 0,0 l/m 3,1 km/h (1 Bft) N 360 6,1 C 8,5 C 0,0 km/h (0 Bft)
06.05.2012 09:34 9,7 C 78 % 0,0 l/m 2,4 km/h (1 Bft) O-NO 67 6,1 C 8,4 C 0,0 km/h (0 Bft)
06.05.2012 09:35 9,7 C 78 % 0,0 l/m 2,4 km/h (1 Bft) O-NO 67 6,1 C 8,4 C 0,0 km/h (0 Bft)
06.05.2012 09:36 9,7 C 78 % 0,0 l/m 2,4 km/h (1 Bft) O-NO 67 6,1 C 8,4 C 0,0 km/h (0 Bft)
06.05.2012 09:37 9,7 C 78 % 0,0 l/m 2,9 km/h (1 Bft) O-SO 112 6,1 C 8,4 C 4,5 km/h (1 Bft)
06.05.2012 09:38 9,9 C 78 % 0,0 l/m 2,9 km/h (1 Bft) O-SO 112 6,2 C 8,4 C 4,5 km/h (1 Bft)
06.05.2012 09:39 9,9 C 78 % 0,0 l/m 3,1 km/h (1 Bft) O-NO 67 6,2 C 8,4 C 2,1 km/h (1 Bft)
06.05.2012 09:40 9,9 C 78 % 0,0 l/m 3,1 km/h (1 Bft) O-NO 67 6,2 C 8,4 C 2,1 km/h (1 Bft)
06.05.2012 09:41 9,9 C 78 % 0,0 l/m 3,1 km/h (1 Bft) O-NO 67 6,2 C 8,4 C 2,1 km/h (1 Bft)
06.05.2012 09:42 9,8 C 78 % 0,0 l/m 2,3 km/h (1 Bft) SO 135 6,1 C 8,3 C 1,9 km/h (1 Bft)
06.05.2012 09:43 9,8 C 78 % 0,0 l/m 2,3 km/h (1 Bft) SO 135 6,1 C 8,3 C 1,9 km/h (1 Bft)
06.05.2012 09:44 9,8 C 78 % 0,0 l/m 2,3 km/h (1 Bft) SO 135 6,1 C 8,3 C 1,9 km/h (1 Bft)
06.05.2012 09:45 9,8 C 78 % 0,0 l/m 2,1 km/h (1 Bft) S 180 6,1 C 8,3 C 0,0 km/h (0 Bft)
06.05.2012 09:46 9,9 C 78 % 0,0 l/m 2,1 km/h (1 Bft) S 180 6,2 C 8,3 C 0,0 km/h (0 Bft)
06.05.2012 09:47 9,9 C 78 % 0,0 l/m 1,9 km/h (1 Bft) N 360 6,2 C 8,3 C 2,6 km/h (1 Bft)
06.05.2012 09:48 9,9 C 78 % 0,0 l/m 1,9 km/h (1 Bft) N 360 6,2 C 8,3 C 2,6 km/h (1 Bft)
06.05.2012 09:49 9,9 C 78 % 0,0 l/m 1,6 km/h (1 Bft) O-NO 67 6,2 C 8,2 C 0,0 km/h (0 Bft)
06.05.2012 09:50 9,9 C 78 % 0,0 l/m 1,6 km/h (1 Bft) O-NO 67 6,2 C 8,2 C 0,0 km/h (0 Bft)
06.05.2012 09:51 9,9 C 78 % 0,0 l/m 1,8 km/h (1 Bft) O 90 6,2 C 8,2 C 6,4 km/h (2 Bft)
06.05.2012 09:52 10,0 C 79 % 0,0 l/m 1,8 km/h (1 Bft) O 90 6,5 C 8,2 C 6,4 km/h (2 Bft)
06.05.2012 09:53 10,0 C 79 % 0,0 l/m 1,6 km/h (1 Bft) O-NO 67 6,5 C 8,2 C 2,6 km/h (1 Bft)
06.05.2012 09:54 10,0 C 79 % 0,0 l/m 1,6 km/h (1 Bft) O-NO 67 6,5 C 8,2 C 2,6 km/h (1 Bft)
06.05.2012 09:55 10,0 C 79 % 0,0 l/m 1,8 km/h (1 Bft) SO 135 6,5 C 8,1 C 2,4 km/h (1 Bft)
06.05.2012 09:56 10,0 C 79 % 0,0 l/m 1,8 km/h (1 Bft) SO 135 6,5 C 8,1 C 2,4 km/h (1 Bft)
06.05.2012 09:57 10,0 C 79 % 0,0 l/m 1,8 km/h (1 Bft) O-SO 112 6,5 C 8,1 C 1,9 km/h (1 Bft)
06.05.2012 09:58 10,0 C 79 % 0,0 l/m 1,8 km/h (1 Bft) O-SO 112 6,5 C 8,1 C 1,9 km/h (1 Bft)
06.05.2012 09:59 10,0 C 79 % 0,0 l/m 1,6 km/h (1 Bft) O-SO 112 6,5 C 8,2 C 0,0 km/h (0 Bft)
06.05.2012 10:00 10,1 C 80 % 0,0 l/m 1,6 km/h (1 Bft) O-SO 112 6,8 C 8,2 C 0,0 km/h (0 Bft)
06.05.2012 10:01 10,1 C 80 % 0,0 l/m 1,6 km/h (1 Bft) O-SO 112 6,8 C 8,2 C 0,0 km/h (0 Bft)
06.05.2012 10:02 10,1 C 80 % 0,0 l/m 1,6 km/h (1 Bft) O-SO 112 6,8 C 8,2 C 0,0 km/h (0 Bft)
06.05.2012 10:03 10,1 C 80 % 0,0 l/m 1,1 km/h (1 Bft) N-NO 22 6,8 C 8,3 C 2,3 km/h (1 Bft)
06.05.2012 10:04 10,1 C 80 % 0,0 l/m 1,1 km/h (1 Bft) N-NO 22 6,8 C 8,3 C 2,3 km/h (1 Bft)
06.05.2012 10:05 10,1 C 80 % 0,0 l/m 1,0 km/h (0 Bft) N-NO 22 6,8 C 8,4 C 0,0 km/h (0 Bft)
06.05.2012 10:06 10,1 C 80 % 0,0 l/m 1,0 km/h (0 Bft) N-NO 22 6,8 C 8,4 C 0,0 km/h (0 Bft)
06.05.2012 10:07 10,1 C 80 % 0,0 l/m 1,1 km/h (1 Bft) O-SO 112 6,8 C 8,4 C 1,9 km/h (1 Bft)
06.05.2012 10:08 10,1 C 81 % 0,0 l/m 1,1 km/h (1 Bft) O-SO 112 7,0 C 8,4 C 1,9 km/h (1 Bft)
06.05.2012 10:09 10,1 C 81 % 0,0 l/m 1,1 km/h (1 Bft) NO 45 7,0 C 8,5 C 2,3 km/h (1 Bft)
06.05.2012 10:10 10,1 C 80 % 0,0 l/m 1,1 km/h (1 Bft) NO 45 6,8 C 8,5 C 2,3 km/h (1 Bft)
06.05.2012 10:11 10,1 C 80 % 0,0 l/m 1,3 km/h (1 Bft) O 90 6,8 C 8,6 C 0,0 km/h (0 Bft)
06.05.2012 10:12 10,1 C 80 % 0,0 l/m 1,3 km/h (1 Bft) O 90 6,8 C 8,6 C 0,0 km/h (0 Bft)
06.05.2012 10:13 10,1 C 80 % 0,0 l/m 1,3 km/h (1 Bft) SO 135 6,8 C 8,6 C 0,0 km/h (0 Bft)
06.05.2012 10:14 10,1 C 80 % 0,0 l/m 1,3 km/h (1 Bft) SO 135 6,8 C 8,6 C 0,0 km/h (0 Bft)
06.05.2012 10:15 10,1 C 80 % 0,0 l/m 1,1 km/h (1 Bft) O-SO 112 6,8 C 8,6 C 0,0 km/h (0 Bft)
06.05.2012 10:16 10,1 C 80 % 0,0 l/m 1,1 km/h (1 Bft) O-SO 112 6,8 C 8,6 C 0,0 km/h (0 Bft)
06.05.2012 10:17 10,1 C 80 % 0,0 l/m 1,3 km/h (1 Bft) O-SO 112 6,8 C 8,5 C 3,2 km/h (1 Bft)
06.05.2012 10:18 10,1 C 80 % 0,0 l/m 1,3 km/h (1 Bft) O-SO 112 6,8 C 8,5 C 3,2 km/h (1 Bft)
06.05.2012 10:19 10,1 C 80 % 0,0 l/m 1,1 km/h (1 Bft) O 90 6,8 C 8,5 C 0,0 km/h (0 Bft)
06.05.2012 10:20 10,1 C 80 % 0,0 l/m 1,1 km/h (1 Bft) O 90 6,8 C 8,5 C 0,0 km/h (0 Bft)
06.05.2012 10:21 10,1 C 80 % 0,0 l/m 1,1 km/h (1 Bft) O 90 6,8 C 8,5 C 0,0 km/h (0 Bft)
06.05.2012 10:22 10,1 C 80 % 0,0 l/m 1,1 km/h (1 Bft) O 90 6,8 C 8,5 C 0,0 km/h (0 Bft)
06.05.2012 10:23 10,1 C 80 % 0,0 l/m 1,3 km/h (1 Bft) O-SO 112 6,8 C 8,3 C 2,3 km/h (1 Bft)
06.05.2012 10:24 10,1 C 80 % 0,0 l/m 1,3 km/h (1 Bft) O-SO 112 6,8 C 8,3 C 2,3 km/h (1 Bft)
06.05.2012 10:25 10,1 C 80 % 0,0 l/m 1,4 km/h (1 Bft) O 90 6,8 C 8,3 C 3,7 km/h (1 Bft)
06.05.2012 10:26 10,1 C 80 % 0,0 l/m 1,4 km/h (1 Bft) O 90 6,8 C 8,3 C 3,7 km/h (1 Bft)
06.05.2012 10:27 10,1 C 80 % 0,0 l/m 1,6 km/h (1 Bft) O 90 6,8 C 8,3 C 2,4 km/h (1 Bft)
06.05.2012 10:28 10,1 C 81 % 0,0 l/m 1,6 km/h (1 Bft) O 90 7,0 C 8,3 C 2,4 km/h (1 Bft)
06.05.2012 10:29 10,1 C 81 % 0,0 l/m 1,6 km/h (1 Bft) O 90 7,0 C 8,3 C 1,9 km/h (1 Bft)
06.05.2012 10:30 10,1 C 80 % 0,0 l/m 1,6 km/h (1 Bft) O 90 6,8 C 8,3 C 1,9 km/h (1 Bft)
06.05.2012 10:31 10,1 C 80 % 0,0 l/m 1,9 km/h (1 Bft) SO 135 6,8 C 8,2 C 2,4 km/h (1 Bft)
06.05.2012 10:32 10,1 C 80 % 0,0 l/m 1,9 km/h (1 Bft) SO 135 6,8 C 8,2 C 2,4 km/h (1 Bft)
06.05.2012 10:33 10,1 C 80 % 0,7 l/m 1,9 km/h (1 Bft) SO 135 6,8 C 8,2 C 3,4 km/h (1 Bft)
06.05.2012 10:34 10,3 C 80 % 0,0 l/m 1,9 km/h (1 Bft) SO 135 7,0 C 8,2 C 3,4 km/h (1 Bft)
06.05.2012 10:35 10,3 C 80 % 0,0 l/m 1,9 km/h (1 Bft) NO 45 7,0 C 8,2 C 2,1 km/h (1 Bft)
06.05.2012 10:36 10,3 C 80 % 0,0 l/m 1,9 km/h (1 Bft) NO 45 7,0 C 8,2 C 2,1 km/h (1 Bft)
06.05.2012 10:37 10,3 C 80 % 0,0 l/m 1,9 km/h (1 Bft) S-SO 157 7,0 C 8,2 C 0,0 km/h (0 Bft)
06.05.2012 10:38 10,4 C 80 % 0,0 l/m 1,9 km/h (1 Bft) S-SO 157 7,1 C 8,2 C 0,0 km/h (0 Bft)
06.05.2012 10:39 10,4 C 80 % 0,0 l/m 1,6 km/h (1 Bft) O-SO 112 7,1 C 8,3 C 3,2 km/h (1 Bft)
06.05.2012 10:40 10,4 C 80 % 0,0 l/m 1,6 km/h (1 Bft) O-SO 112 7,1 C 8,3 C 3,2 km/h (1 Bft)
06.05.2012 10:41 10,4 C 80 % 0,0 l/m 1,6 km/h (1 Bft) O-SO 112 7,1 C 8,3 C 3,2 km/h (1 Bft)
06.05.2012 10:42 10,5 C 80 % 0,0 l/m 1,6 km/h (1 Bft) O-SO 112 7,2 C 8,3 C 3,2 km/h (1 Bft)
06.05.2012 10:43 10,5 C 80 % 0,0 l/m 1,6 km/h (1 Bft) S 180 7,2 C 8,4 C 3,1 km/h (1 Bft)
06.05.2012 10:44 10,6 C 79 % 0,0 l/m 1,6 km/h (1 Bft) S 180 7,1 C 8,4 C 3,1 km/h (1 Bft)
06.05.2012 10:45 10,6 C 79 % 0,0 l/m 1,8 km/h (1 Bft) S 180 7,1 C 8,6 C 1,8 km/h (1 Bft)
06.05.2012 10:46 10,7 C 79 % 0,0 l/m 1,8 km/h (1 Bft) S 180 7,2 C 8,6 C 1,8 km/h (1 Bft)
06.05.2012 10:48 10,8 C 79 % 0,0 l/m 1,4 km/h (1 Bft) W 270 7,3 C 8,7 C 0,0 km/h (0 Bft)
06.05.2012 10:50 10,9 C 79 % 0,0 l/m 1,6 km/h (1 Bft) O-SO 112 7,4 C 8,9 C 1,8 km/h (1 Bft)
06.05.2012 10:52 10,8 C 79 % 0,0 l/m 1,4 km/h (1 Bft) S-SO 157 7,3 C 9,0 C 1,6 km/h (1 Bft)
06.05.2012 10:54 10,9 C 79 % 0,0 l/m 1,1 km/h (1 Bft) S 180 7,4 C 9,1 C 0,0 km/h (0 Bft)
06.05.2012 10:56 11,1 C 79 % 0,0 l/m 0,6 km/h (0 Bft) S 180 7,6 C 9,2 C 0,0 km/h (0 Bft)
06.05.2012 10:58 11,1 C 78 % 0,0 l/m 0,6 km/h (0 Bft) S 180 7,4 C 9,4 C 1,6 km/h (1 Bft)
06.05.2012 11:00 11,1 C 79 % 0,0 l/m 0,6 km/h (0 Bft) S 180 7,6 C 9,4 C 0,0 km/h (0 Bft)
06.05.2012 11:02 11,1 C 78 % 0,0 l/m 0,6 km/h (0 Bft) S 180 7,4 C 9,4 C 0,0 km/h (0 Bft)
06.05.2012 11:04 11,2 C 79 % 0,0 l/m 0,3 km/h (0 Bft) W-SW 247 7,7 C 9,6 C 0,0 km/h (0 Bft)
06.05.2012 11:06 11,2 C 79 % 0,0 l/m 0,3 km/h (0 Bft) S-SO 157 7,7 C 9,7 C 0,0 km/h (0 Bft)
06.05.2012 11:08 11,2 C 78 % 0,0 l/m 0,2 km/h (0 Bft) S 180 7,5 C 9,9 C 0,0 km/h (0 Bft)
06.05.2012 11:10 11,2 C 78 % 0,0 l/m 0,0 km/h (0 Bft) S 180 7,5 C 10,0 C 0,0 km/h (0 Bft)
06.05.2012 11:12 11,2 C 77 % 0,0 l/m 0,0 km/h (0 Bft) S 180 7,3 C 10,1 C 0,0 km/h (0 Bft)
06.05.2012 11:14 11,3 C 77 % 0,0 l/m 0,0 km/h (0 Bft) O 90 7,4 C 10,1 C 0,0 km/h (0 Bft)
06.05.2012 11:16 11,3 C 77 % 0,0 l/m 0,2 km/h (0 Bft) O-SO 112 7,4 C 10,1 C 0,0 km/h (0 Bft)
06.05.2012 11:18 11,2 C 77 % 0,0 l/m 0,2 km/h (0 Bft) S-SW 202 7,3 C 10,1 C 0,0 km/h (0 Bft)
06.05.2012 11:20 11,2 C 77 % 0,0 l/m 0,2 km/h (0 Bft) O 90 7,3 C 10,1 C 0,0 km/h (0 Bft)
06.05.2012 11:22 11,3 C 78 % 0,0 l/m 0,2 km/h (0 Bft) O 90 7,6 C 10,1 C 0,0 km/h (0 Bft)
06.05.2012 11:24 11,2 C 78 % 0,0 l/m 0,2 km/h (0 Bft) N-NO 22 7,5 C 10,1 C 0,0 km/h (0 Bft)
06.05.2012 11:26 11,2 C 78 % 0,0 l/m 0,2 km/h (0 Bft) SO 135 7,5 C 10,1 C 1,8 km/h (1 Bft)
06.05.2012 11:28 11,2 C 78 % 0,0 l/m 0,3 km/h (0 Bft) O-SO 112 7,5 C 10,0 C 1,9 km/h (1 Bft)
06.05.2012 11:30 11,2 C 78 % 0,0 l/m 0,5 km/h (0 Bft) O-SO 112 7,5 C 9,9 C 2,6 km/h (1 Bft)
06.05.2012 12:27 10,1 C 81 % 1,4 l/m 1,1 km/h (1 Bft) O-SO 112 7,0 C 7,8 C 1,9 km/h (1 Bft)
06.05.2012 12:59 9,9 C 82 % 1,4 l/m 0,3 km/h (0 Bft) N-NO 22 7,0 C 7,7 C 0,0 km/h (0 Bft)
06.05.2012 13:02 9,8 C 82 % 0,0 l/m 0,3 km/h (0 Bft) N-NO 22 6,9 C 7,7 C 0,0 km/h (0 Bft)
06.05.2012 13:04 9,9 C 82 % 0,7 l/m 0,3 km/h (0 Bft) N-NO 22 7,0 C 7,7 C 0,0 km/h (0 Bft)
06.05.2012 13:06 9,9 C 82 % 0,0 l/m 0,2 km/h (0 Bft) N-NO 22 7,0 C 7,7 C 0,0 km/h (0 Bft)
06.05.2012 13:08 9,7 C 82 % 0,0 l/m 0,0 km/h (0 Bft) N 360 6,8 C 7,8 C 1,9 km/h (1 Bft)
06.05.2012 13:10 9,8 C 82 % 0,0 l/m 0,3 km/h (0 Bft) N 360 6,9 C 7,7 C 0,0 km/h (0 Bft)
06.05.2012 13:12 9,7 C 82 % 0,0 l/m 0,3 km/h (0 Bft) NO 45 6,8 C 7,7 C 0,0 km/h (0 Bft)
06.05.2012 13:14 9,7 C 82 % 0,7 l/m 0,3 km/h (0 Bft) N-NO 22 6,8 C 7,7 C 0,0 km/h (0 Bft)
06.05.2012 13:16 9,7 C 82 % 0,0 l/m 0,3 km/h (0 Bft) SO 135 6,8 C 7,7 C 0,0 km/h (0 Bft)
06.05.2012 13:18 9,8 C 82 % 0,0 l/m 0,3 km/h (0 Bft) NO 45 6,9 C 7,7 C 0,0 km/h (0 Bft)
06.05.2012 13:20 9,8 C 82 % 0,0 l/m 0,2 km/h (0 Bft) N-NO 22 6,9 C 7,8 C 0,0 km/h (0 Bft)
06.05.2012 13:22 9,9 C 82 % 0,0 l/m 0,2 km/h (0 Bft) N-NO 22 7,0 C 7,8 C 0,0 km/h (0 Bft)
06.05.2012 13:24 9,8 C 83 % 0,0 l/m 0,0 km/h (0 Bft) N-NW 337 7,1 C 7,9 C 0,0 km/h (0 Bft)
06.05.2012 13:26 10,0 C 82 % 0,0 l/m 0,0 km/h (0 Bft) N-NW 337 7,1 C 8,0 C 0,0 km/h (0 Bft)
06.05.2012 13:27 10,1 C 82 % 0,0 l/m 0,2 km/h (0 Bft) NO 45 7,2 C 8,0 C 0,0 km/h (0 Bft)
06.05.2012 13:31 10,0 C 82 % 0,0 l/m 0,3 km/h (0 Bft) O 90 7,1 C 8,1 C 0,0 km/h (0 Bft)
06.05.2012 13:32 10,1 C 82 % 0,0 l/m 0,3 km/h (0 Bft) O 90 7,2 C 8,1 C 0,0 km/h (0 Bft)
06.05.2012 14:30 11,3 C 81 % 0,7 l/m 0,3 km/h (0 Bft) S-SW 202 8,2 C 10,0 C 1,8 km/h (1 Bft)
06.05.2012 14:32 11,5 C 81 % 0,0 l/m 0,3 km/h (0 Bft) S-SW 202 8,4 C 10,0 C 1,8 km/h (1 Bft)
06.05.2012 14:34 11,6 C 80 % 0,0 l/m 0,5 km/h (0 Bft) SW 225 8,3 C 10,2 C 0,0 km/h (0 Bft)
06.05.2012 14:36 11,9 C 80 % 0,0 l/m 0,5 km/h (0 Bft) O-SO 112 8,6 C 10,5 C 1,9 km/h (1 Bft)
06.05.2012 14:38 12,0 C 80 % 0,0 l/m 0,3 km/h (0 Bft) S-SO 157 8,7 C 10,8 C 4,5 km/h (1 Bft)
06.05.2012 14:40 12,1 C 80 % 0,0 l/m 0,5 km/h (0 Bft) O 90 8,8 C 11,1 C 0,0 km/h (0 Bft)
06.05.2012 14:47 12,3 C 78 % 0,0 l/m 1,0 km/h (0 Bft) W-SW 247 8,6 C 12,1 C 0,0 km/h (0 Bft)
06.05.2012 14:48 12,3 C 78 % 0,0 l/m 1,0 km/h (0 Bft) W-SW 247 8,6 C 12,1 C 0,0 km/h (0 Bft)
06.05.2012 15:27 11,1 C 79 % 0,0 l/m 0,3 km/h (0 Bft) NO 45 7,6 C 9,9 C 1,6 km/h (1 Bft)
06.05.2012 16:27 12,7 C 72 % 0,0 l/m 1,8 km/h (1 Bft) W-SW 247 7,8 C 13,3 C 3,4 km/h (1 Bft)
06.05.2012 16:41 12,5 C 73 % 0,0 l/m 1,3 km/h (1 Bft) S 180 7,8 C 12,5 C 3,4 km/h (1 Bft)
06.05.2012 16:42 12,5 C 73 % 0,0 l/m 1,3 km/h (1 Bft) S 180 7,8 C 12,5 C 3,4 km/h (1 Bft)
06.05.2012 16:44 12,5 C 75 % 0,0 l/m 2,1 km/h (1 Bft) S-SO 157 8,2 C 12,2 C 2,3 km/h (1 Bft)
06.05.2012 16:46 12,5 C 75 % 0,0 l/m 1,9 km/h (1 Bft) NO 45 8,2 C 12,1 C 2,1 km/h (1 Bft)
06.05.2012 16:48 12,4 C 75 % 0,0 l/m 2,1 km/h (1 Bft) N 360 8,1 C 12,0 C 3,4 km/h (1 Bft)
06.05.2012 16:50 12,5 C 76 % 0,0 l/m 1,9 km/h (1 Bft) O 90 8,4 C 11,9 C 1,8 km/h (1 Bft)
06.05.2012 16:52 12,4 C 75 % 0,0 l/m 1,8 km/h (1 Bft) N 360 8,1 C 11,9 C 0,0 km/h (0 Bft)
06.05.2012 16:54 12,5 C 75 % 0,0 l/m 1,0 km/h (0 Bft) NO 45 8,2 C 11,9 C 0,0 km/h (0 Bft)
06.05.2012 16:56 12,3 C 75 % 0,0 l/m 0,6 km/h (0 Bft) N-NW 337 8,0 C 11,9 C 0,0 km/h (0 Bft)
06.05.2012 16:58 12,3 C 75 % 0,0 l/m 0,5 km/h (0 Bft) N-NW 337 8,0 C 11,8 C 0,0 km/h (0 Bft)
06.05.2012 17:00 12,4 C 75 % 0,0 l/m 0,5 km/h (0 Bft) NO 45 8,1 C 11,7 C 2,1 km/h (1 Bft)
06.05.2012 17:02 12,5 C 75 % 0,0 l/m 0,5 km/h (0 Bft) NO 45 8,2 C 11,7 C 2,1 km/h (1 Bft)
06.05.2012 17:04 12,6 C 75 % 0,0 l/m 0,8 km/h (0 Bft) N 360 8,3 C 11,7 C 0,0 km/h (0 Bft)
06.05.2012 17:06 12,6 C 75 % 0,0 l/m 1,1 km/h (1 Bft) S-SO 157 8,3 C 11,9 C 3,1 km/h (1 Bft)
06.05.2012 17:08 12,7 C 74 % 0,0 l/m 2,1 km/h (1 Bft) O-SO 112 8,2 C 12,1 C 6,0 km/h (2 Bft)
06.05.2012 17:10 12,7 C 74 % 0,0 l/m 2,3 km/h (1 Bft) N-NO 22 8,2 C 12,1 C 0,0 km/h (0 Bft)
06.05.2012 17:12 12,6 C 74 % 0,0 l/m 2,7 km/h (1 Bft) O-SO 112 8,1 C 12,2 C 7,2 km/h (2 Bft)
06.05.2012 17:14 12,7 C 74 % 0,0 l/m 3,4 km/h (1 Bft) S 180 8,2 C 12,2 C 7,2 km/h (2 Bft)
06.05.2012 17:16 12,7 C 73 % 0,0 l/m 4,3 km/h (1 Bft) O-SO 112 8,0 C 12,1 C 6,3 km/h (2 Bft)
06.05.2012 17:18 12,7 C 73 % 0,0 l/m 4,7 km/h (1 Bft) N-NW 337 8,0 C 12,0 C 9,3 km/h (2 Bft)
06.05.2012 17:20 12,7 C 72 % 0,0 l/m 5,0 km/h (1 Bft) O-SO 112 7,8 C 11,9 C 13,2 km/h (3 Bft)
06.05.2012 17:22 12,7 C 72 % 0,0 l/m 5,0 km/h (1 Bft) O-SO 112 7,8 C 11,9 C 13,2 km/h (3 Bft)
06.05.2012 17:24 12,8 C 73 % 0,0 l/m 6,1 km/h (2 Bft) O-SO 112 8,1 C 11,4 C 5,6 km/h (1 Bft)
06.05.2012 17:26 12,8 C 73 % 0,0 l/m 6,1 km/h (2 Bft) SO 135 8,1 C 11,4 C 7,9 km/h (2 Bft)
06.05.2012 17:28 12,8 C 73 % 0,0 l/m 6,4 km/h (2 Bft) SO 135 8,1 C 11,3 C 9,7 km/h (2 Bft)
06.05.2012 17:30 12,9 C 73 % 0,0 l/m 6,1 km/h (2 Bft) O-SO 112 8,2 C 11,3 C 7,1 km/h (2 Bft)
06.05.2012 17:32 12,9 C 72 % 0,0 l/m 5,8 km/h (2 Bft) N-NO 22 8,0 C 11,5 C 3,9 km/h (1 Bft)
06.05.2012 17:34 13,1 C 72 % 0,0 l/m 5,3 km/h (1 Bft) NO 45 8,2 C 11,6 C 4,3 km/h (1 Bft)
06.05.2012 17:36 13,3 C 72 % 0,0 l/m 5,5 km/h (1 Bft) S 180 8,4 C 11,8 C 5,1 km/h (1 Bft)
06.05.2012 17:38 13,3 C 72 % 0,0 l/m 5,8 km/h (2 Bft) SO 135 8,4 C 12,1 C 7,9 km/h (2 Bft)
06.05.2012 17:40 13,5 C 71 % 0,0 l/m 5,6 km/h (1 Bft) S 180 8,3 C 12,3 C 7,4 km/h (2 Bft)
06.05.2012 17:42 13,5 C 71 % 0,0 l/m 5,6 km/h (1 Bft) S 180 8,3 C 12,3 C 7,4 km/h (2 Bft)
06.05.2012 17:44 13,5 C 71 % 0,0 l/m 6,4 km/h (2 Bft) O 90 8,3 C 12,7 C 10,8 km/h (2 Bft)
06.05.2012 17:46 13,5 C 71 % 0,0 l/m 6,1 km/h (2 Bft) O-SO 112 8,3 C 13,1 C 9,0 km/h (2 Bft)
06.05.2012 17:48 13,7 C 70 % 0,0 l/m 6,3 km/h (2 Bft) O-SO 112 8,3 C 13,4 C 6,6 km/h (2 Bft)
06.05.2012 17:50 13,7 C 70 % 0,0 l/m 6,1 km/h (2 Bft) SO 135 8,3 C 13,7 C 6,9 km/h (2 Bft)
06.05.2012 17:52 13,6 C 70 % 0,0 l/m 6,0 km/h (2 Bft) O-SO 112 8,2 C 13,8 C 7,6 km/h (2 Bft)
06.05.2012 17:54 13,7 C 68 % 0,0 l/m 5,5 km/h (1 Bft) O-SO 112 7,9 C 14,2 C 5,0 km/h (1 Bft)
06.05.2012 17:56 13,5 C 68 % 0,0 l/m 6,4 km/h (2 Bft) SO 135 7,7 C 14,3 C 16,6 km/h (3 Bft)
06.05.2012 17:58 13,5 C 68 % 0,0 l/m 6,4 km/h (2 Bft) SO 135 7,7 C 14,4 C 8,5 km/h (2 Bft)
06.05.2012 18:00 13,3 C 68 % 0,0 l/m 6,3 km/h (2 Bft) O-SO 112 7,5 C 14,3 C 6,8 km/h (2 Bft)
06.05.2012 18:02 13,2 C 67 % 0,0 l/m 6,3 km/h (2 Bft) O-SO 112 7,2 C 14,3 C 6,8 km/h (2 Bft)
06.05.2012 18:04 13,0 C 67 % 0,0 l/m 6,8 km/h (2 Bft) O-SO 112 7,0 C 13,2 C 6,8 km/h (2 Bft)
06.05.2012 18:06 12,9 C 66 % 0,0 l/m 6,4 km/h (2 Bft) O-SO 112 6,7 C 13,1 C 6,9 km/h (2 Bft)
06.05.2012 18:08 12,9 C 67 % 0,0 l/m 5,6 km/h (1 Bft) S-SO 157 6,9 C 12,8 C 7,1 km/h (2 Bft)
06.05.2012 18:10 12,8 C 67 % 0,0 l/m 5,8 km/h (2 Bft) S-SO 157 6,8 C 12,6 C 7,1 km/h (2 Bft)
06.05.2012 18:12 12,8 C 68 % 0,0 l/m 5,3 km/h (1 Bft) O 90 7,0 C 12,4 C 4,3 km/h (1 Bft)
06.05.2012 18:14 12,8 C 68 % 0,0 l/m 4,7 km/h (1 Bft) O 90 7,0 C 12,3 C 7,4 km/h (2 Bft)
06.05.2012 18:16 12,9 C 68 % 0,0 l/m 4,3 km/h (1 Bft) SO 135 7,1 C 12,2 C 3,5 km/h (1 Bft)
06.05.2012 18:18 12,8 C 68 % 0,0 l/m 4,2 km/h (1 Bft) S-SO 157 7,0 C 12,1 C 3,4 km/h (1 Bft)
06.05.2012 18:20 12,9 C 68 % 0,0 l/m 3,9 km/h (1 Bft) S-SO 157 7,1 C 12,2 C 4,3 km/h (1 Bft)
06.05.2012 18:22 12,9 C 69 % 0,0 l/m 3,9 km/h (1 Bft) S-SO 157 7,4 C 12,2 C 4,3 km/h (1 Bft)
06.05.2012 18:24 13,1 C 69 % 0,0 l/m 3,2 km/h (1 Bft) SO 135 7,5 C 12,7 C 3,4 km/h (1 Bft)
06.05.2012 18:26 13,1 C 69 % 0,0 l/m 3,1 km/h (1 Bft) O 90 7,5 C 12,8 C 4,3 km/h (1 Bft)
06.05.2012 18:28 13,2 C 69 % 0,0 l/m 2,9 km/h (1 Bft) SO 135 7,6 C 13,1 C 3,9 km/h (1 Bft)
06.05.2012 18:30 13,2 C 69 % 0,0 l/m 2,4 km/h (1 Bft) O-NO 67 7,6 C 13,2 C 0,0 km/h (0 Bft)
06.05.2012 18:32 13,3 C 67 % 0,0 l/m 2,6 km/h (1 Bft) O 90 7,3 C 13,4 C 6,8 km/h (2 Bft)
06.05.2012 18:34 13,4 C 66 % 0,0 l/m 2,9 km/h (1 Bft) O-SO 112 7,2 C 13,9 C 5,1 km/h (1 Bft)
06.05.2012 18:38 13,5 C 67 % 0,0 l/m 3,7 km/h (1 Bft) SO 135 7,5 C 15,4 C 2,3 km/h (1 Bft)
06.05.2012 18:40 13,4 C 66 % 0,0 l/m 3,7 km/h (1 Bft) SO 135 7,2 C 15,4 C 2,3 km/h (1 Bft)
06.05.2012 18:42 13,5 C 66 % 0,0 l/m 3,7 km/h (1 Bft) SO 135 7,3 C 15,4 C 2,3 km/h (1 Bft)
06.05.2012 18:44 13,5 C 65 % 0,0 l/m 4,0 km/h (1 Bft) O-SO 112 7,1 C 16,0 C 5,3 km/h (1 Bft)
06.05.2012 18:46 13,5 C 66 % 0,0 l/m 3,7 km/h (1 Bft) S-SW 202 7,3 C 16,1 C 1,8 km/h (1 Bft)
06.05.2012 18:48 13,6 C 66 % 0,0 l/m 3,5 km/h (1 Bft) O-SO 112 7,4 C 16,1 C 7,9 km/h (2 Bft)
06.05.2012 18:50 13,6 C 65 % 0,0 l/m 3,5 km/h (1 Bft) SO 135 7,1 C 16,3 C 3,4 km/h (1 Bft)
06.05.2012 18:52 13,5 C 65 % 0,0 l/m 3,9 km/h (1 Bft) O-SO 112 7,1 C 16,4 C 6,9 km/h (2 Bft)
06.05.2012 18:54 13,5 C 65 % 0,0 l/m 3,9 km/h (1 Bft) S-SO 157 7,1 C 16,6 C 4,3 km/h (1 Bft)
06.05.2012 18:56 13,4 C 64 % 0,0 l/m 3,7 km/h (1 Bft) S-SO 157 6,7 C 16,7 C 2,9 km/h (1 Bft)
06.05.2012 18:58 13,5 C 63 % 0,0 l/m 4,2 km/h (1 Bft) O 90 6,6 C 16,8 C 7,4 km/h (2 Bft)
06.05.2012 19:00 13,3 C 62 % 0,0 l/m 4,8 km/h (1 Bft) SO 135 6,2 C 16,8 C 9,7 km/h (2 Bft)
06.05.2012 19:02 13,1 C 62 % 0,0 l/m 4,8 km/h (1 Bft) SO 135 6,0 C 16,8 C 9,7 km/h (2 Bft)
06.05.2012 19:04 13,1 C 62 % 0,0 l/m 5,1 km/h (1 Bft) S 180 6,0 C 15,6 C 7,2 km/h (2 Bft)
06.05.2012 19:06 13,1 C 63 % 0,0 l/m 5,1 km/h (1 Bft) S 180 6,2 C 15,6 C 2,6 km/h (1 Bft)
06.05.2012 19:08 13,1 C 63 % 0,0 l/m 5,3 km/h (1 Bft) S-SO 157 6,2 C 15,3 C 4,5 km/h (1 Bft)
06.05.2012 19:10 13,1 C 64 % 0,0 l/m 4,5 km/h (1 Bft) O-SO 112 6,4 C 15,1 C 2,6 km/h (1 Bft)
06.05.2012 19:12 12,9 C 63 % 0,0 l/m 4,0 km/h (1 Bft) SO 135 6,0 C 15,1 C 4,7 km/h (1 Bft)
06.05.2012 19:14 12,9 C 64 % 0,0 l/m 3,5 km/h (1 Bft) W 270 6,3 C 15,1 C 3,4 km/h (1 Bft)
06.05.2012 19:16 12,9 C 64 % 0,0 l/m 3,4 km/h (1 Bft) S 180 6,3 C 15,0 C 3,4 km/h (1 Bft)
06.05.2012 19:18 12,8 C 64 % 0,0 l/m 3,1 km/h (1 Bft) O 90 6,2 C 14,7 C 1,8 km/h (1 Bft)
06.05.2012 19:20 12,8 C 65 % 0,0 l/m 2,7 km/h (1 Bft) O-SO 112 6,4 C 14,3 C 2,7 km/h (1 Bft)
06.05.2012 19:22 12,8 C 65 % 0,0 l/m 2,7 km/h (1 Bft) O-SO 112 6,4 C 14,3 C 2,7 km/h (1 Bft)
06.05.2012 19:24 12,6 C 66 % 0,0 l/m 2,1 km/h (1 Bft) NO 45 6,4 C 13,5 C 0,0 km/h (0 Bft)
06.05.2012 19:26 12,6 C 67 % 0,0 l/m 1,6 km/h (1 Bft) S 180 6,6 C 13,3 C 0,0 km/h (0 Bft)
06.05.2012 19:28 12,6 C 68 % 0,0 l/m 1,1 km/h (1 Bft) SO 135 6,9 C 13,0 C 0,0 km/h (0 Bft)
06.05.2012 19:30 12,6 C 69 % 0,0 l/m 0,8 km/h (0 Bft) O-SO 112 7,1 C 12,7 C 0,0 km/h (0 Bft)
06.05.2012 19:32 12,5 C 69 % 0,0 l/m 0,3 km/h (0 Bft) SO 135 7,0 C 12,6 C 0,0 km/h (0 Bft)
06.05.2012 19:34 12,4 C 69 % 0,0 l/m 0,3 km/h (0 Bft) O-SO 112 6,9 C 12,4 C 1,8 km/h (1 Bft)
06.05.2012 19:36 12,5 C 69 % 0,0 l/m 1,0 km/h (0 Bft) O 90 7,0 C 12,2 C 3,5 km/h (1 Bft)
06.05.2012 19:38 12,4 C 70 % 0,0 l/m 1,1 km/h (1 Bft) S-SO 157 7,1 C 11,9 C 0,0 km/h (0 Bft)
06.05.2012 19:40 12,3 C 72 % 0,0 l/m 1,1 km/h (1 Bft) O 90 7,4 C 11,7 C 0,0 km/h (0 Bft)
06.05.2012 19:42 12,3 C 72 % 0,0 l/m 1,1 km/h (1 Bft) O 90 7,4 C 11,7 C 0,0 km/h (0 Bft)
06.05.2012 19:44 12,1 C 72 % 0,0 l/m 1,0 km/h (0 Bft) SO 135 7,2 C 11,3 C 0,0 km/h (0 Bft)
06.05.2012 19:46 12,1 C 72 % 0,0 l/m 0,6 km/h (0 Bft) N-NW 337 7,2 C 11,2 C 0,0 km/h (0 Bft)
06.05.2012 19:48 12,1 C 71 % 0,0 l/m 0,2 km/h (0 Bft) S 180 7,0 C 11,1 C 1,6 km/h (1 Bft)
06.05.2012 19:50 11,9 C 72 % 0,0 l/m 0,2 km/h (0 Bft) N 360 7,0 C 10,9 C 0,0 km/h (0 Bft)
06.05.2012 19:52 11,8 C 72 % 0,0 l/m 0,2 km/h (0 Bft) N-NO 22 6,9 C 10,8 C 0,0 km/h (0 Bft)
06.05.2012 19:54 11,6 C 73 % 0,0 l/m 0,2 km/h (0 Bft) N 360 6,9 C 10,7 C 0,0 km/h (0 Bft)
06.05.2012 19:56 11,7 C 74 % 0,0 l/m 0,3 km/h (0 Bft) N 360 7,2 C 10,5 C 0,0 km/h (0 Bft)
06.05.2012 19:58 11,6 C 73 % 0,0 l/m 0,5 km/h (0 Bft) N 360 6,9 C 10,5 C 3,1 km/h (1 Bft)
06.05.2012 20:00 11,5 C 73 % 0,0 l/m 0,5 km/h (0 Bft) N-NW 337 6,8 C 10,5 C 1,9 km/h (1 Bft)
06.05.2012 20:02 11,3 C 73 % 0,0 l/m 0,5 km/h (0 Bft) N-NW 337 6,6 C 10,5 C 1,9 km/h (1 Bft)
06.05.2012 20:04 11,2 C 73 % 0,0 l/m 1,0 km/h (0 Bft) NO 45 6,5 C 10,5 C 1,8 km/h (1 Bft)
06.05.2012 20:06 11,2 C 74 % 0,0 l/m 1,1 km/h (1 Bft) N 360 6,7 C 10,7 C 4,3 km/h (1 Bft)
06.05.2012 20:08 11,2 C 74 % 0,0 l/m 1,3 km/h (1 Bft) N-NW 337 6,7 C 10,8 C 2,3 km/h (1 Bft)
06.05.2012 20:10 11,1 C 74 % 0,0 l/m 0,8 km/h (0 Bft) S 180 6,6 C 11,3 C 0,0 km/h (0 Bft)
06.05.2012 20:12 11,0 C 75 % 0,0 l/m 0,8 km/h (0 Bft) S 180 6,7 C 11,3 C 0,0 km/h (0 Bft)
06.05.2012 20:14 10,9 C 75 % 0,0 l/m 0,5 km/h (0 Bft) NO 45 6,6 C 11,3 C 0,0 km/h (0 Bft)
06.05.2012 20:16 10,8 C 75 % 0,0 l/m 0,3 km/h (0 Bft) O 90 6,5 C 11,3 C 0,0 km/h (0 Bft)
06.05.2012 20:18 10,8 C 75 % 0,0 l/m 0,0 km/h (0 Bft) NO 45 6,5 C 11,5 C 0,0 km/h (0 Bft)
06.05.2012 20:20 10,6 C 75 % 0,0 l/m 0,0 km/h (0 Bft) N 360 6,4 C 11,6 C 0,0 km/h (0 Bft)
06.05.2012 20:22 10,6 C 75 % 0,0 l/m 0,0 km/h (0 Bft) N 360 6,4 C 11,6 C 0,0 km/h (0 Bft)
06.05.2012 20:24 10,5 C 76 % 0,0 l/m 0,2 km/h (0 Bft) NO 45 6,5 C 11,6 C 0,0 km/h (0 Bft)
06.05.2012 20:26 10,5 C 77 % 0,0 l/m 0,2 km/h (0 Bft) N-NO 22 6,6 C 11,4 C 0,0 km/h (0 Bft)
06.05.2012 20:28 10,3 C 77 % 0,0 l/m 0,2 km/h (0 Bft) N-NO 22 6,4 C 11,2 C 0,0 km/h (0 Bft)
06.05.2012 20:30 10,1 C 77 % 0,0 l/m 0,6 km/h (0 Bft) N-NO 22 6,3 C 10,8 C 2,7 km/h (1 Bft)
06.05.2012 20:32 10,0 C 77 % 0,0 l/m 0,6 km/h (0 Bft) N 360 6,2 C 10,4 C 0,0 km/h (0 Bft)
06.05.2012 20:34 10,0 C 77 % 0,0 l/m 0,6 km/h (0 Bft) N-NO 22 6,2 C 10,0 C 0,0 km/h (0 Bft)
06.05.2012 20:36 10,0 C 78 % 0,0 l/m 0,6 km/h (0 Bft) N-NO 22 6,3 C 9,6 C 0,0 km/h (0 Bft)
06.05.2012 20:38 10,0 C 77 % 0,0 l/m 0,6 km/h (0 Bft) O-SO 112 6,2 C 9,3 C 0,0 km/h (0 Bft)
06.05.2012 20:40 9,9 C 78 % 0,0 l/m 0,5 km/h (0 Bft) NO 45 6,2 C 8,9 C 0,0 km/h (0 Bft)
06.05.2012 20:42 9,9 C 78 % 0,0 l/m 0,5 km/h (0 Bft) NO 45 6,2 C 8,9 C 0,0 km/h (0 Bft)
06.05.2012 20:44 9,8 C 78 % 0,0 l/m 0,0 km/h (0 Bft) N-NO 22 6,1 C 8,5 C 0,0 km/h (0 Bft)
06.05.2012 20:46 9,6 C 78 % 0,0 l/m 0,0 km/h (0 Bft) N-NO 22 6,0 C 8,2 C 0,0 km/h (0 Bft)
06.05.2012 20:48 9,7 C 78 % 0,0 l/m 0,0 km/h (0 Bft) N-NO 22 6,1 C 8,0 C 0,0 km/h (0 Bft)
06.05.2012 20:50 9,6 C 78 % 0,0 l/m 0,0 km/h (0 Bft) N-NO 22 6,0 C 7,8 C 0,0 km/h (0 Bft)
06.05.2012 20:52 9,5 C 78 % 0,0 l/m 0,0 km/h (0 Bft) N-NO 22 5,9 C 7,6 C 0,0 km/h (0 Bft)
06.05.2012 20:54 9,5 C 78 % 0,0 l/m 0,0 km/h (0 Bft) N-NO 22 5,9 C 7,4 C 0,0 km/h (0 Bft)
06.05.2012 20:56 9,3 C 78 % 0,0 l/m 0,0 km/h (0 Bft) O-SO 112 5,7 C 7,1 C 0,0 km/h (0 Bft)
06.05.2012 20:58 9,3 C 78 % 0,0 l/m 0,0 km/h (0 Bft) O-SO 112 5,7 C 7,1 C 0,0 km/h (0 Bft)
06.05.2012 21:00 9,1 C 79 % 0,0 l/m 0,0 km/h (0 Bft) O 90 5,7 C 6,9 C 0,0 km/h (0 Bft)
06.05.2012 21:02 9,1 C 79 % 0,0 l/m 0,0 km/h (0 Bft) O 90 5,7 C 6,9 C 0,0 km/h (0 Bft)
06.05.2012 21:04 9,1 C 79 % 0,0 l/m 0,2 km/h (0 Bft) S 180 5,7 C 6,6 C 1,6 km/h (1 Bft)
06.05.2012 21:06 8,9 C 79 % 0,0 l/m 0,3 km/h (0 Bft) O-SO 112 5,5 C 6,6 C 0,0 km/h (0 Bft)
06.05.2012 21:08 8,9 C 79 % 0,0 l/m 0,3 km/h (0 Bft) N-NW 337 5,5 C 6,5 C 0,0 km/h (0 Bft)
06.05.2012 21:10 8,7 C 80 % 0,0 l/m 0,3 km/h (0 Bft) N-NW 337 5,4 C 6,3 C 3,5 km/h (1 Bft)
06.05.2012 21:12 8,6 C 80 % 0,0 l/m 0,5 km/h (0 Bft) N-NO 22 5,3 C 6,2 C 2,3 km/h (1 Bft)
06.05.2012 21:14 8,7 C 80 % 0,0 l/m 0,5 km/h (0 Bft) SO 135 5,4 C 6,2 C 2,1 km/h (1 Bft)
06.05.2012 21:16 8,6 C 80 % 0,0 l/m 0,5 km/h (0 Bft) O-SO 112 5,3 C 6,2 C 1,6 km/h (1 Bft)
06.05.2012 21:18 8,5 C 80 % 0,0 l/m 0,6 km/h (0 Bft) S-SW 202 5,3 C 6,1 C 2,1 km/h (1 Bft)
06.05.2012 21:20 8,5 C 81 % 0,0 l/m 0,8 km/h (0 Bft) N-NO 22 5,4 C 6,1 C 2,1 km/h (1 Bft)
06.05.2012 21:22 8,4 C 81 % 0,0 l/m 0,8 km/h (0 Bft) N-NO 22 5,3 C 6,1 C 2,1 km/h (1 Bft)
06.05.2012 21:24 8,4 C 81 % 0,0 l/m 1,0 km/h (0 Bft) S-SW 202 5,3 C 6,2 C 0,0 km/h (0 Bft)
06.05.2012 21:26 8,3 C 81 % 0,0 l/m 1,1 km/h (1 Bft) W-SW 247 5,2 C 6,2 C 1,8 km/h (1 Bft)
06.05.2012 21:28 8,3 C 81 % 0,0 l/m 1,1 km/h (1 Bft) W-SW 247 5,2 C 6,2 C 0,0 km/h (0 Bft)
06.05.2012 21:30 8,3 C 81 % 0,0 l/m 0,8 km/h (0 Bft) W-NW 292 5,2 C 6,2 C 0,0 km/h (0 Bft)
06.05.2012 21:32 8,3 C 81 % 0,0 l/m 0,6 km/h (0 Bft) O 90 5,2 C 6,2 C 0,0 km/h (0 Bft)
06.05.2012 21:34 8,3 C 82 % 0,0 l/m 0,3 km/h (0 Bft) S 180 5,4 C 6,2 C 0,0 km/h (0 Bft)
06.05.2012 21:36 8,3 C 82 % 0,0 l/m 0,3 km/h (0 Bft) N-NO 22 5,4 C 6,2 C 0,0 km/h (0 Bft)
06.05.2012 21:38 8,3 C 82 % 0,0 l/m 0,2 km/h (0 Bft) S-SO 157 5,4 C 6,2 C 0,0 km/h (0 Bft)
06.05.2012 21:40 8,1 C 82 % 0,0 l/m 0,3 km/h (0 Bft) N-NO 22 5,2 C 6,1 C 1,9 km/h (1 Bft)
06.05.2012 21:42 8,1 C 82 % 0,0 l/m 0,3 km/h (0 Bft) N-NO 22 5,2 C 6,1 C 1,9 km/h (1 Bft)
06.05.2012 21:44 8,1 C 82 % 0,0 l/m 0,2 km/h (0 Bft) SO 135 5,2 C 6,0 C 2,1 km/h (1 Bft)
06.05.2012 21:46 8,0 C 82 % 0,0 l/m 0,2 km/h (0 Bft) O-SO 112 5,1 C 5,9 C 0,0 km/h (0 Bft)
06.05.2012 21:48 8,1 C 82 % 0,0 l/m 0,2 km/h (0 Bft) O-SO 112 5,2 C 5,9 C 0,0 km/h (0 Bft)
06.05.2012 21:50 8,0 C 82 % 0,0 l/m 0,2 km/h (0 Bft) NO 45 5,1 C 5,9 C 0,0 km/h (0 Bft)
06.05.2012 21:52 8,0 C 82 % 0,0 l/m 0,2 km/h (0 Bft) O-SO 112 5,1 C 5,8 C 0,0 km/h (0 Bft)
06.05.2012 21:54 8,0 C 82 % 0,0 l/m 0,2 km/h (0 Bft) N-NO 22 5,1 C 5,8 C 0,0 km/h (0 Bft)
06.05.2012 21:56 8,0 C 82 % 0,0 l/m 0,0 km/h (0 Bft) S 180 5,1 C 5,9 C 0,0 km/h (0 Bft)
06.05.2012 21:58 8,1 C 82 % 0,0 l/m 0,0 km/h (0 Bft) S 180 5,2 C 5,9 C 0,0 km/h (0 Bft)
06.05.2012 22:00 8,0 C 82 % 0,0 l/m 0,0 km/h (0 Bft) W-SW 247 5,1 C 6,0 C 0,0 km/h (0 Bft)
06.05.2012 22:02 8,0 C 82 % 0,0 l/m 0,0 km/h (0 Bft) W-SW 247 5,1 C 6,0 C 0,0 km/h (0 Bft)
06.05.2012 22:04 8,0 C 83 % 0,0 l/m 0,0 km/h (0 Bft) N-NO 22 5,3 C 6,1 C 0,0 km/h (0 Bft)
06.05.2012 22:06 8,0 C 83 % 0,0 l/m 0,0 km/h (0 Bft) SO 135 5,3 C 6,1 C 0,0 km/h (0 Bft)
06.05.2012 22:08 8,1 C 83 % 0,0 l/m 0,2 km/h (0 Bft) N-NW 337 5,4 C 6,2 C 2,1 km/h (1 Bft)
06.05.2012 22:10 8,1 C 83 % 0,0 l/m 0,3 km/h (0 Bft) O-SO 112 5,4 C 6,3 C 2,1 km/h (1 Bft)
06.05.2012 22:12 8,1 C 83 % 0,0 l/m 0,5 km/h (0 Bft) W-SW 247 5,4 C 6,4 C 1,8 km/h (1 Bft)
06.05.2012 22:14 8,2 C 84 % 0,0 l/m 1,0 km/h (0 Bft) N-NO 22 5,7 C 6,5 C 3,5 km/h (1 Bft)
06.05.2012 22:16 8,3 C 83 % 0,0 l/m 1,0 km/h (0 Bft) O-NO 67 5,6 C 6,6 C 2,1 km/h (1 Bft)
06.05.2012 22:18 8,3 C 83 % 0,0 l/m 1,0 km/h (0 Bft) S 180 5,6 C 6,7 C 0,0 km/h (0 Bft)
06.05.2012 22:20 8,3 C 83 % 0,0 l/m 0,8 km/h (0 Bft) SW 225 5,6 C 6,8 C 0,0 km/h (0 Bft)
06.05.2012 22:22 8,3 C 83 % 0,0 l/m 0,8 km/h (0 Bft) SW 225 5,6 C 6,8 C 0,0 km/h (0 Bft)
06.05.2012 22:24 8,3 C 83 % 0,0 l/m 0,5 km/h (0 Bft) N-NO 22 5,6 C 6,9 C 0,0 km/h (0 Bft)
06.05.2012 22:26 8,3 C 83 % 0,0 l/m 0,2 km/h (0 Bft) N-NO 22 5,6 C 6,9 C 0,0 km/h (0 Bft)
06.05.2012 22:28 8,3 C 83 % 0,0 l/m 0,2 km/h (0 Bft) N 360 5,6 C 6,9 C 1,8 km/h (1 Bft)
06.05.2012 22:30 8,3 C 83 % 0,0 l/m 0,2 km/h (0 Bft) N-NO 22 5,6 C 6,9 C 0,0 km/h (0 Bft)
06.05.2012 22:32 8,3 C 83 % 0,0 l/m 0,2 km/h (0 Bft) N-NW 337 5,6 C 6,9 C 1,9 km/h (1 Bft)
06.05.2012 22:34 8,2 C 83 % 0,0 l/m 0,2 km/h (0 Bft) N 360 5,5 C 6,8 C 0,0 km/h (0 Bft)
06.05.2012 22:36 8,1 C 83 % 0,0 l/m 0,3 km/h (0 Bft) S 180 5,4 C 6,6 C 2,1 km/h (1 Bft)
06.05.2012 22:38 8,0 C 83 % 0,0 l/m 0,3 km/h (0 Bft) S 180 5,3 C 6,5 C 0,0 km/h (0 Bft)
06.05.2012 22:40 8,1 C 82 % 0,0 l/m 0,3 km/h (0 Bft) O 90 5,2 C 6,4 C 0,0 km/h (0 Bft)
06.05.2012 22:42 7,9 C 82 % 0,0 l/m 0,3 km/h (0 Bft) O 90 5,0 C 6,4 C 0,0 km/h (0 Bft)
06.05.2012 22:44 7,9 C 82 % 0,0 l/m 0,3 km/h (0 Bft) S 180 5,0 C 6,0 C 0,0 km/h (0 Bft)
06.05.2012 22:46 7,7 C 82 % 0,0 l/m 0,2 km/h (0 Bft) N-NO 22 4,8 C 5,9 C 0,0 km/h (0 Bft)
06.05.2012 22:48 7,6 C 82 % 0,0 l/m 0,5 km/h (0 Bft) SO 135 4,7 C 5,8 C 4,0 km/h (1 Bft)
06.05.2012 22:50 7,7 C 83 % 0,0 l/m 0,3 km/h (0 Bft) NW 315 5,0 C 5,7 C 0,0 km/h (0 Bft)
06.05.2012 22:52 7,6 C 83 % 0,0 l/m 0,3 km/h (0 Bft) NW 315 4,9 C 5,7 C 0,0 km/h (0 Bft)
06.05.2012 22:54 7,6 C 83 % 0,0 l/m 0,3 km/h (0 Bft) N-NO 22 4,9 C 5,6 C 0,0 km/h (0 Bft)
06.05.2012 22:56 7,6 C 83 % 0,0 l/m 0,5 km/h (0 Bft) N-NW 337 4,9 C 5,6 C 2,6 km/h (1 Bft)
06.05.2012 22:58 7,6 C 83 % 0,0 l/m 0,5 km/h (0 Bft) N 360 4,9 C 5,6 C 2,1 km/h (1 Bft)
06.05.2012 23:00 7,7 C 83 % 0,0 l/m 0,3 km/h (0 Bft) S 180 5,0 C 5,6 C 2,7 km/h (1 Bft)
06.05.2012 23:02 7,7 C 83 % 0,0 l/m 0,3 km/h (0 Bft) S 180 5,0 C 5,6 C 2,7 km/h (1 Bft)
06.05.2012 23:04 7,6 C 83 % 0,0 l/m 0,6 km/h (0 Bft) O-SO 112 4,9 C 5,9 C 0,0 km/h (0 Bft)
06.05.2012 23:06 7,6 C 83 % 0,0 l/m 0,6 km/h (0 Bft) O-SO 112 4,9 C 5,9 C 0,0 km/h (0 Bft)
06.05.2012 23:08 7,7 C 83 % 0,0 l/m 0,5 km/h (0 Bft) NO 45 5,0 C 5,9 C 0,0 km/h (0 Bft)
06.05.2012 23:10 7,7 C 83 % 0,0 l/m 0,5 km/h (0 Bft) S-SW 202 5,0 C 6,0 C 0,0 km/h (0 Bft)
06.05.2012 23:12 7,7 C 83 % 0,0 l/m 0,5 km/h (0 Bft) N 360 5,0 C 6,1 C 3,1 km/h (1 Bft)
06.05.2012 23:14 7,7 C 84 % 0,0 l/m 0,6 km/h (0 Bft) S 180 5,2 C 6,2 C 0,0 km/h (0 Bft)
06.05.2012 23:16 7,9 C 84 % 0,0 l/m 0,6 km/h (0 Bft) W-NW 292 5,4 C 6,2 C 3,5 km/h (1 Bft)
06.05.2012 23:18 7,9 C 84 % 0,0 l/m 0,6 km/h (0 Bft) O-SO 112 5,4 C 6,3 C 0,0 km/h (0 Bft)
06.05.2012 23:20 7,9 C 84 % 0,0 l/m 0,6 km/h (0 Bft) W-NW 292 5,4 C 6,5 C 0,0 km/h (0 Bft)
06.05.2012 23:22 7,9 C 84 % 0,0 l/m 0,6 km/h (0 Bft) W-NW 292 5,4 C 6,5 C 0,0 km/h (0 Bft)
06.05.2012 23:24 7,8 C 84 % 0,0 l/m 0,5 km/h (0 Bft) N-NO 22 5,3 C 6,5 C 0,0 km/h (0 Bft)
06.05.2012 23:26 7,9 C 84 % 0,0 l/m 0,5 km/h (0 Bft) SO 135 5,4 C 6,6 C 1,8 km/h (1 Bft)
06.05.2012 23:28 7,9 C 84 % 0,0 l/m 0,3 km/h (0 Bft) O 90 5,4 C 6,6 C 0,0 km/h (0 Bft)
06.05.2012 23:30 7,9 C 84 % 0,0 l/m 0,5 km/h (0 Bft) O 90 5,4 C 6,7 C 2,3 km/h (1 Bft)
06.05.2012 23:32 7,9 C 83 % 0,0 l/m 0,5 km/h (0 Bft) SO 135 5,2 C 6,8 C 0,0 km/h (0 Bft)
06.05.2012 23:34 7,9 C 83 % 0,0 l/m 0,5 km/h (0 Bft) N-NW 337 5,2 C 6,8 C 1,8 km/h (1 Bft)
06.05.2012 23:36 8,0 C 83 % 0,0 l/m 0,5 km/h (0 Bft) N-NW 337 5,3 C 6,9 C 0,0 km/h (0 Bft)
06.05.2012 23:38 8,0 C 84 % 0,0 l/m 0,5 km/h (0 Bft) S-SW 202 5,5 C 6,8 C 2,4 km/h (1 Bft)
06.05.2012 23:40 8,1 C 83 % 0,0 l/m 0,8 km/h (0 Bft) W-NW 292 5,4 C 6,9 C 2,4 km/h (1 Bft)
06.05.2012 23:42 8,0 C 84 % 0,0 l/m 0,8 km/h (0 Bft) W-NW 292 5,5 C 6,9 C 2,4 km/h (1 Bft)
06.05.2012 23:44 8,0 C 84 % 0,0 l/m 1,0 km/h (0 Bft) N-NO 22 5,5 C 7,0 C 1,9 km/h (1 Bft)
06.05.2012 23:46 8,0 C 83 % 0,0 l/m 1,0 km/h (0 Bft) N 360 5,3 C 7,1 C 0,0 km/h (0 Bft)
06.05.2012 23:48 8,0 C 83 % 0,0 l/m 0,8 km/h (0 Bft) W-NW 292 5,3 C 7,1 C 0,0 km/h (0 Bft)
06.05.2012 23:50 8,1 C 84 % 0,0 l/m 0,6 km/h (0 Bft) SO 135 5,6 C 7,1 C 2,9 km/h (1 Bft)
06.05.2012 23:52 8,1 C 83 % 0,0 l/m 0,6 km/h (0 Bft) O 90 5,4 C 7,1 C 1,9 km/h (1 Bft)
06.05.2012 23:54 8,1 C 83 % 0,0 l/m 1,0 km/h (0 Bft) N-NO 22 5,4 C 7,1 C 2,6 km/h (1 Bft)
06.05.2012 23:56 8,1 C 83 % 0,0 l/m 1,3 km/h (1 Bft) NO 45 5,4 C 7,2 C 3,9 km/h (1 Bft)
06.05.2012 23:58 8,2 C 83 % 0,0 l/m 1,4 km/h (1 Bft) SO 135 5,5 C 7,3 C 2,7 km/h (1 Bft)
_ Min-Zeit 04:20 19:00 - 00:09 - - 04:20 08:45 00:00
Minimum _ 6,9 C 62 % - 0,0 km/h (0 Bft) - - 4,4 C 4,2 C 0,0 km/h (0 Bft)
_ Max-Zeit 17:48 04:44 12:27 08:17 - - 14:40 18:58 08:31
Maximum _ 13,7 C 85 % 1,4 l/m 10,0 km/h
O-SO (2 Bft)
- - 8,8 C 16,8 C 22,2 km/h
O-SO (4 Bft)
Durchschnitt _ 9,7 C 79 % #5,5 l/m 1,7 km/h (1 Bft) O-SO - 6,3 C 8,5 C 2,5 km/h (1 Bft)